Calls for Service

Disclaimer: This information is not intended to be used as official crime data. This program does not provide information about all crimes, and excludes specific incidents such as sexual assaults and child abuse. The City of Conway Police Department makes every effort to produce and publish current and accurate information. No warranties, expressed or implied, are provided for the data herein, its use, or its interpretation. The services provided are for informational purposes only and should not be relied on for any type of legal action.

Loading calls...
Showing calls from previous 10 days
Call Number Case Number Address Call Time Incident Type
18-1002894 1011 REA DR 2018-10-16 13:23:14.920 VEHICLE TOW
18-1002891 3430 IRBY DR 2018-10-16 13:13:34.453 ATTEMPT TO CONTACT
18-1002890 356 FARRIS RD 2018-10-16 13:09:43.230 ACCIDENT - PRIVATE PROPERTY
18-1002889 57 FAIRMONT DR 2018-10-16 12:56:51.900 DOMESTIC DISTURBANCE
18-1002888 1770 MILESTONE DR 2018-10-16 12:42:49.837 ATTEMPT TO CONTACT
18-1002887 1622 WESTLAKE DR 2018-10-16 12:27:02.423 ALARM
18-1002886 32 BRIER SPRINGS DR 2018-10-16 12:25:40.340 CIVIL STAND BY
18-1002885 18-11876 2310 E OAK ST 2018-10-16 12:23:48.903 ACCIDENT - PRIVATE PROPERTY
18-1002883 155 FARRIS RD 2018-10-16 12:18:49.690 CRIMINAL MISCHIEF
18-1002882 2235 DAVE WARD DR 2018-10-16 12:11:34.680 CIVIL MATTER
18-1002881 1951 STERLING DR 2018-10-16 12:08:15.030 ATTEMPT TO CONTACT
18-1002880 18-11877 475 ROBINS ST 2018-10-16 11:58:32.820 CRIMINAL MISCHIEF
18-1002878 18-11866 950 E 6TH ST 2018-10-16 11:46:51.533 ACCIDENT - PROPERTY DAMAGE
18-1002876 613 MONROE ST 2018-10-16 11:42:13.010 BURGLARY
18-1002875 18-11871 1155 SKYLINE DR 2018-10-16 11:40:35.273 BATTERY REPORT
18-1002873 804 NORTH CREEK DR 2018-10-16 11:32:44.387 FOUND PROPERTY
18-1002872 2100 SALEM RD 2018-10-16 11:31:16.340 ATTEMPT TO CONTACT
18-1002871 605 5TH AV 2018-10-16 11:30:42.393 CHECKING PERSON
18-1002868 415 MONROE ST 2018-10-16 11:03:10.217 TRAFFIC PROBLEM-CONTROL
18-1002866 18-11856 545 E DAVE WARD DR 2018-10-16 10:42:59.353 ACCIDENT - PROPERTY DAMAGE
18-1002864 3380 NICKLAUS DR 2018-10-16 10:28:15.203 SUSPICIOUS ACTIVITY
18-1002863 370 INDIAN HILLS DR 2018-10-16 10:16:21.000 BREAKING OR ENTERING
18-1002861 1155 SKYLINE DR 2018-10-16 10:14:09.380 CHECK ON THE WELFARE
18-1002859 18-11854 398 E DAVE WARD DR 2018-10-16 10:00:46.240 ACCIDENT - PROPERTY DAMAGE
18-1002856 1930 PENNY ST 2018-10-16 09:38:13.477 VEHICLE TOW
18-1002852 1806 HILLMAN ST 2018-10-16 09:27:51.597 ALARM
18-1002851 18-11850 201 DONAGHEY AV 2018-10-16 09:21:14.540 ACCIDENT - PROPERTY DAMAGE
18-1002850 655 ELSINGER BLVD 2018-10-16 09:20:57.973 LOST PROPERTY
18-1002847 1305 MONTANA DR 2018-10-16 09:01:51.727 ALARM - HOLD UP or PANIC
18-1002846 2620 PRINCE ST 2018-10-16 08:58:32.310 CHECKING PERSON
18-1002845 2413 PARKWOOD DR 2018-10-16 08:54:37.747 RECOVERED VEHICLE
18-1002842 801 LOCUST AV 2018-10-16 08:38:09.230 FELONY WARRANT SERVICE
18-1002840 1622 CHERRY ST 2018-10-16 08:33:48.380 SERVING SUBPOENA
18-1002838 1806 HILLMAN ST 2018-10-16 08:15:35.173 ALARM
18-1002837 18-11847 1085 MORNINGSIDE DR 2018-10-16 08:11:37.613 FRAUD
18-1002833 18-11846 2413 PARKWOOD DR 2018-10-16 07:10:05.570 THEFT OF VEHICLE
18-1002830 18-11844 1485 OLD MORRILTON HWY 2018-10-16 05:39:53.630 DOMESTIC DISTURBANCE
18-1002829 1301 ROBINS ST 2018-10-16 04:57:01.750 CHECKING PERSON
18-1002826 18-11843 1405 S DONAGHEY AV 2018-10-16 03:38:50.800 CRIMINAL MISCHIEF
18-1002825 2890 DAVE WARD DR 2018-10-16 03:35:20.420 SUSPICIOUS VEHICLE
18-1002824 1200 OLD MORRILTON HWY 2018-10-16 03:02:39.957 CHECKING PERSON
18-1002823 1403 BELLWOOD DR 2018-10-16 02:37:02.210 BREAKING OR ENTERING
18-1002822 356 FARRIS RD 2018-10-16 01:59:54.590 BURGLARY
18-1002817 545 SALEM RD 2018-10-16 00:45:51.637 ALARM
18-1002816 5200 JOHN W. ALLISON RD 2018-10-16 00:05:29.440 CHECKING VEHICLE
18-1002815 1900 HOGAN LN 2018-10-15 23:56:57.790 DISTURBANCE
18-1002813 1520 MIDDLE RD 2018-10-15 23:30:40.073 REPOSSESSION
18-1002810 18-11842 2370 SANDERS ST 2018-10-15 22:16:13.373 INTOXICATED PERSON
18-1002808 475 ROBINS ST 2018-10-15 21:53:07.133 HARASSMENT
18-1002804 18-11839 2130 BLACKBERRY LN 2018-10-15 21:24:49.390 SUSPICIOUS ACTIVITY
18-1002803 2018-10-15 21:23:15.163 ATTEMPT TO CONTACT
18-1002799 1105 FENDLEY DR 2018-10-15 20:29:38.610 ALARM
18-1002798 895 OAK ST 2018-10-15 20:24:36.890 TERRORISTIC THREATENING
18-1002797 18-11837 2085 KEATHLEY DR 2018-10-15 20:22:42.527 TERRORISTIC THREATENING
18-1002795 18-11836 545 SALEM RD 2018-10-15 20:06:36.833 ACCIDENT - PROPERTY DAMAGE
18-1002794 1155 SKYLINE DR 2018-10-15 19:47:19.447 CHECK ON THE WELFARE
18-1002792 410 E 6TH ST 2018-10-15 19:27:32.403 DISTURBANCE
18-1002789 18-11835 1160 HOGAN LN 2018-10-15 19:09:51.910 THEFT OF PROPERTY
18-1002788 18-11833 1102 OLD MORRILTON HWY 2018-10-15 19:04:56.473 ACCIDENT - PROPERTY DAMAGE
18-1002787 655 NORTHWIND CIR 2018-10-15 19:00:19.167 TERRORISTIC THREATENING
18-1002786 2106 ROBINSON AV 2018-10-15 18:50:57.843 CHECK ON THE WELFARE
18-1002785 18-11834 21 BERNARD DR 2018-10-15 18:41:55.070 NEGLECT
18-1002784 766 HARKRIDER ST 2018-10-15 18:31:11.813 ABANDONED VEHICLE
18-1002783 1105 SKYLINE DR 2018-10-15 18:26:37.593 THEFT OF IDENTITY
18-1002781 2101 COLLEGE AV 2018-10-15 18:07:11.103 ATTEMPT TO CONTACT
18-1002780 401 2ND ST 2018-10-15 17:53:41.053 DOMESTIC DISTURBANCE
18-1002779 18-11832 150 E SIEBENMORGEN RD 2018-10-15 17:52:42.957 NEGLECT
18-1002778 1120 EAST GERMAN LN 2018-10-15 17:51:28.577 SHOPLIFTING
18-1002777 1330 SALEM RD 2018-10-15 17:49:22.323 BURGLARY
18-1002776 18-11831 950 RIO GRANDE RD 2018-10-15 17:41:04.697 ACCIDENT - PRIVATE PROPERTY
18-1002775 18-11830 823 OAK ST 2018-10-15 17:23:37.790 ACCIDENT - PROPERTY DAMAGE
18-1002774 18-11829 821 NORTH CREEK DR 2018-10-15 17:16:43.577 ACCIDENT - PRIVATE PROPERTY
18-1002773 901 E OAK ST 2018-10-15 17:06:38.823 RECKLESS DRIVER
18-1002772 18-11827 1640 BUCKHORN CIR 2018-10-15 16:48:42.383 THEFT OF PROPERTY
18-1002771 18-11826 1511 BEAN ST 2018-10-15 16:43:06.123 BREAKING OR ENTERING
18-1002770 18-11828 1201 DONAGHEY AV 2018-10-15 16:36:37.370 ACCIDENT - PROPERTY DAMAGE
18-1002768 1555 EXCHANGE AV 2018-10-15 16:35:04.253 ATTEMPT TO CONTACT
18-1002767 1120 EAST GERMAN LN 2018-10-15 16:22:00.037 THEFT OF PROPERTY
18-1002765 2500 DAVE WARD DR 2018-10-15 16:12:48.883 FRAUD
18-1002764 3202 PRINCE ST 2018-10-15 15:57:06.670 CHECKING VEHICLE
18-1002763 18-11824 1101 OLD MORRILTON HWY 2018-10-15 15:42:28.370 ACCIDENT - PERSONAL INJURY
18-1002762 18-11825 3900 DAVE WARD DR 2018-10-15 15:39:08.470 ACCIDENT - PRIVATE PROPERTY
18-1002761 1105 PRAIRIE ST 2018-10-15 15:38:34.257 ATTEMPT TO CONTACT
18-1002760 18-11823 650 SKYLINE DR 2018-10-15 15:34:06.357 ACCIDENT - PROPERTY DAMAGE
18-1002759 13 NORTHWOOD DR 2018-10-15 15:31:49.373 DOMESTIC DISTURBANCE
18-1002758 2535 DONAGHEY AV 2018-10-15 15:27:08.273 SUSPICIOUS VEHICLE
18-1002757 1914 MARTIN ST 2018-10-15 15:25:30.477 CIVIL MATTER
18-1002755 300 GRIFFITH ST 2018-10-15 15:22:14.603 STALLED VEHICLE
18-1002753 18-11822 300 OLIVER ST 2018-10-15 15:17:57.950 ACCIDENT - PERSONAL INJURY
18-1002750 2010 RICH SMITH LN 2018-10-15 14:56:53.220 THEFT OF PROPERTY
18-1002749 18-11819 1250 S AMITY RD 2018-10-15 14:43:40.903 ACCIDENT - PRIVATE PROPERTY
18-1002747 18-11820 601 ELSINGER BLVD 2018-10-15 14:37:41.230 SHOPLIFTING
18-1002743 1940 HENRY ST 2018-10-15 14:05:44.570 CHECK ON THE WELFARE
18-1002742 655 DAVE WARD DR 2018-10-15 13:59:37.140 AGENCY ASSIST
18-1002741 2125 HARKRIDER ST 2018-10-15 13:54:24.233 SUSPICIOUS PERSON
18-1002740 18-11816 1105 PRAIRIE ST 2018-10-15 13:54:14.187 FOUND PROPERTY
18-1002738 2399 HOGAN LN 2018-10-15 13:49:53.713 ROAD RAGE
18-1002737 855 SALEM RD 2018-10-15 13:47:00.957 SUPPLEMENT REPORT CALL
18-1002736 18-11818 1629 SOUTH BLVD 2018-10-15 13:40:12.843 CHECKING PERSON
18-1002735 501 DONAGHEY AV 2018-10-15 13:35:53.723 SUPPLEMENT REPORT CALL
18-1002734 18-11817 2360 SANDERS ST 2018-10-15 13:28:19.870 ATTEMPT TO CONTACT
18-1002732 5050 TRINITY CROSSING DR 2018-10-15 13:22:15.890 ALARM
18-1002731 15 TIMBERLANE TRL 2018-10-15 13:17:06.367 ATTEMPT TO CONTACT
18-1002730 18-11815 300 S DONAGHEY AV 2018-10-15 13:10:44.603 BATTERY REPORT
18-1002726 10 BRADLEY CIR 2018-10-15 12:50:39.183 SUSPICIOUS ACTIVITY
18-1002725 18-11814 2550 PRINCE ST 2018-10-15 12:47:06.490 THEFT OF PROPERTY
18-1002724 400 S DONAGHEY AV 2018-10-15 12:39:38.470 SUPPLEMENT REPORT CALL
18-1002723 18-11813 1750 VILLAGE COMMONS DR 2018-10-15 12:33:55.987 CHECKING VEHICLE
18-1002720 1317 HAMILTON ST 2018-10-15 12:11:26.580 AGENCY ASSIST
18-1002719 102 DONAGHEY AV 2018-10-15 12:04:50.273 STALLED VEHICLE
18-1002717 18-11812 100 BROOKSIDE DR 2018-10-15 11:48:43.427 THEFT OF PROPERTY
18-1002716 2045 DAVE WARD DR 2018-10-15 11:47:39.310 STALLED VEHICLE
18-1002715 18-11810 1310 E OAK ST 2018-10-15 11:34:13.563 LOST-STOLEN LICENSE PLATE
18-1002714 5305 TYLER ST 2018-10-15 11:30:29.173 SUPPLEMENT REPORT CALL
18-1002712 18-11811 1601 HOGAN LN 2018-10-15 11:23:40.107 ACCIDENT - PRIVATE PROPERTY
18-1002711 607 5TH ST 2018-10-15 11:19:23.017 ATTEMPT TO CONTACT
18-1002709 701 1ST AV 2018-10-15 11:15:41.950 ATTEMPT TO CONTACT
18-1002708 1620 MIDDLE RD 2018-10-15 11:06:01.127 NEGLECT
18-1002706 18-11809 870 ENTERPRISE AV 2018-10-15 10:52:56.737 FRAUD
18-1002704 18-11807 15 TIMBERLANE TRL 2018-10-15 10:49:21.173 ABUSE
18-1002703 18-11808 2 RIDGEWOOD DR 2018-10-15 10:35:01.343 DOMESTIC DISTURBANCE
18-1002702 5305 TYLER ST 2018-10-15 10:24:00.820 SUPPLEMENT REPORT CALL
18-1002699 831 1ST AV 2018-10-15 10:04:37.690 ROBBERY
18-1002698 18-11805 501 ELSINGER BLVD 2018-10-15 09:51:36.830 BREAKING OR ENTERING
18-1002697 2645 DONAGHEY AV 2018-10-15 09:50:08.877 SUSPICIOUS PERSON
18-1002696 3600 DONNELL RIDGE RD 2018-10-15 09:45:11.100 STALLED VEHICLE
18-1002694 18-11806 801 HOGAN LN 2018-10-15 09:41:14.027 ACCIDENT - PROPERTY DAMAGE
18-1002691 1800 HOGAN LN 2018-10-15 08:53:29.503 BATTERY REPORT
18-1002689 1845 OLD MORRILTON HWY 2018-10-15 08:43:14.627 ATTEMPT TO CONTACT
18-1002686 2018-10-15 08:25:38.593 RECOVERED VEHICLE
18-1002684 1720 OLD MORRILTON HWY 2018-10-15 08:15:59.847 ALARM
18-1002683 1660 DAVE WARD DR 2018-10-15 08:15:30.643 ALARM
18-1002681 955 E OAK ST 2018-10-15 07:56:59.603 ALARM
18-1002680 18-11804 401 S DONAGHEY AV 2018-10-15 07:47:52.197 ACCIDENT - PERSONAL INJURY
18-1002678 2799 SALEM RD 2018-10-15 07:29:56.820 TRAFFIC PROBLEM-CONTROL
18-1002677 2399 STOUT ST 2018-10-15 07:20:51.673 911 HANGUP CALL
18-1002676 701 1ST AV 2018-10-15 07:17:54.253 CIVIL MATTER
18-1002675 1305 E SIEBENMORGEN RD 2018-10-15 07:03:42.067 911 HANGUP CALL
18-1002674 1150 MUSEUM RD 2018-10-15 07:02:47.857 ALARM
18-1002673 2100 DAVE WARD DR 2018-10-15 06:50:11.390 ACCIDENT - PEDESTRIAN
18-1002672 955 CAROLYN LN 2018-10-15 06:32:30.117 ALARM
18-1002671 2599 WASHINGTON AV 2018-10-15 06:28:41.340 RECKLESS DRIVER
18-1002670 324 SOUTH GERMAN LN 2018-10-15 06:22:56.690 ALARM
18-1002669 1670 WINTERBROOK DR 2018-10-15 06:08:45.453 ALARM - HOLD UP or PANIC
18-1002668 1601 HOGAN LN 2018-10-15 05:46:26.107 ACCIDENT - PRIVATE PROPERTY
18-1002667 18-11803 1900 HOGAN LN 2018-10-15 04:49:17.487 DISTURBANCE
18-1002666 420 OAK ST 2018-10-15 04:41:40.170 ALARM
18-1002663 800 S DONAGHEY AV 2018-10-15 03:59:43.280 CHECKING PERSON
18-1002661 324 SOUTH GERMAN LN 2018-10-15 03:10:51.880 ALARM
18-1002660 18-11802 466 HARKRIDER ST 2018-10-15 02:53:02.867 DOMESTIC DISTURBANCE
18-1002657 1337 SUNSET DR 2018-10-15 02:23:12.617 FIRE DEPT ASSIST
18-1002654 18-11801 475 ROBINS ST 2018-10-15 01:46:18.557 BATTERY REPORT
18-1002653 1905 OLD MORRILTON HWY 2018-10-15 01:36:11.853 SUSPICIOUS ACTIVITY
18-1002652 735 FIELDSTONE LN 2018-10-15 01:06:54.173 SUSPICIOUS VEHICLE
18-1002651 1101 FENDLEY DR 2018-10-15 01:01:58.193 CHECKING VEHICLE
18-1002648 2018-10-15 00:14:20.817 LOUD NOISE-MUSIC
18-1002647 530 S DONAGHEY AV 2018-10-15 00:04:59.643 PARKING VIOLATION
18-1002646 18-11800 810 MERRIMAN ST 2018-10-15 00:01:28.440 CHECKING VEHICLE
18-1002645 18-11799 2302 COLLEGE AV 2018-10-14 23:33:48.397 BATTERY REPORT
18-1002644 545 E DAVE WARD DR 2018-10-14 23:30:06.500 ATTEMPT TO CONTACT
18-1002643 2018-10-14 23:29:37.390 SUSPICIOUS ACTIVITY
18-1002642 2420 BROADVIEW AV 2018-10-14 23:25:43.653 CHECKING VEHICLE
18-1002640 1 CADRON SETTLEMENT PARK RD 2018-10-14 22:54:35.650 CHECKING BUILDING
18-1002639 100 BROOKSIDE DR 2018-10-14 22:47:30.190 LOUD NOISE-MUSIC
18-1002638 10 LOWER RIDGE RD 2018-10-14 22:26:42.540 CHECKING VEHICLE
18-1002636 18-11797 999 FARRIS RD 2018-10-14 22:21:54.233 ACCIDENT - PROPERTY DAMAGE
18-1002634 18-11796 1155 SKYLINE DR 2018-10-14 21:39:43.727 BATTERY REPORT
18-1002632 18-11794 1906 DAVE WARD DR 2018-10-14 21:26:56.327 DOMESTIC DISTURBANCE
18-1002630 18-11793 1000 EAST GERMAN LN 2018-10-14 21:13:48.677 ACCIDENT - PROPERTY DAMAGE
18-1002629 4101 TYLER ST 2018-10-14 21:11:10.023 CHECK ON THE WELFARE
18-1002628 18-11795 1624 WESTLAKE DR 2018-10-14 21:10:07.670 DOMESTIC DISTURBANCE
18-1002627 3635 GRESHAM DR 2018-10-14 20:54:57.967 ALARM
18-1002623 1105 PRAIRIE ST 2018-10-14 20:13:15.600 ATTEMPT TO CONTACT
18-1002622 18-11792 2730 DAVE WARD DR 2018-10-14 20:09:00.180 TRESPASSING
18-1002620 475 ROBINS ST 2018-10-14 20:01:12.147 CHECKING PERSON
18-1002619 18-11791 1260 S AMITY RD 2018-10-14 20:00:50.960 THEFT OF PROPERTY
18-1002618 18-11790 1155 SKYLINE DR 2018-10-14 19:48:23.450 HARASSMENT
18-1002617 18-11789 855 E OAK ST 2018-10-14 19:40:04.187 ACCIDENT - PROPERTY DAMAGE
18-1002616 822 WATKINS ST 2018-10-14 19:33:37.257 CRIMINAL MISCHIEF
18-1002615 1425 ROBINS ST 2018-10-14 19:29:37.093 SUSPICIOUS PERSON
18-1002612 100 BROOKSIDE DR 2018-10-14 18:57:46.410 HARASSING COMMUNICATIONS
18-1002611 1460 S SALEM RD 2018-10-14 18:55:24.637 RECKLESS DRIVER
18-1002610 1 EAGLE WING DR 2018-10-14 18:52:09.353 SHOTS FIRED
18-1002609 3910 GABRIAL DR 2018-10-14 18:50:03.507 CRIMINAL MISCHIEF
18-1002608 380 HARKRIDER ST 2018-10-14 18:34:57.017 SUSPICIOUS VEHICLE
18-1002607 4530 VALIANT DR 2018-10-14 18:24:07.507 DOMESTIC DISTURBANCE
18-1002606 380 HARKRIDER ST 2018-10-14 18:21:40.350 ATTEMPT TO CONTACT
18-1002605 1600 S DONAGHEY AV 2018-10-14 18:18:50.620 RECKLESS DRIVER
18-1002604 18-11788 700 3RD AV 2018-10-14 18:15:09.367 DISTURBANCE
18-1002603 466 HARKRIDER ST 2018-10-14 18:07:13.530 CHECK ON THE WELFARE
18-1002602 1620 MIDDLE RD 2018-10-14 18:01:14.137 SUSPICIOUS PERSON
18-1002601 1284 S AMITY RD 2018-10-14 17:56:27.373 SUSPICIOUS VEHICLE
18-1002600 3200 DAVE WARD DR 2018-10-14 17:44:33.170 TRAFFIC LIGHT PROBLEM
18-1002598 201 SKYLINE DR 2018-10-14 17:34:21.337 CIVIL MATTER
18-1002597 2200 MEADOWLAKE RD 2018-10-14 17:15:31.967 SUSPICIOUS PERSON
18-1002596 18-11787 850 OAK ST 2018-10-14 17:11:04.923 SHOPLIFTING
18-1002595 2200 MEADOWLAKE RD 2018-10-14 17:00:18.423 SUSPICIOUS PERSON
18-1002594 18-11786 2133 CALDWELL ST 2018-10-14 16:57:36.010 TERRORISTIC THREATENING
18-1002593 801 S SALEM RD 2018-10-14 16:50:04.483 TRAFFIC LIGHT PROBLEM
18-1002592 18-11785 1500 HARKRIDER ST 2018-10-14 16:46:10.620 ACCIDENT - PROPERTY DAMAGE
18-1002590 18-11784 500 SOUTH GERMAN LN 2018-10-14 16:33:43.487 MISDEMEANOR WARRANT SERVICE
18-1002589 1600 CENTENNIAL CLUB DR 2018-10-14 16:31:29.543 ALARM
18-1002587 300 S DONAGHEY AV 2018-10-14 16:10:49.990 VEHICLE TOW
18-1002586 711 4TH AV 2018-10-14 15:56:46.167 BREAKING OR ENTERING
18-1002584 695 EXCHANGE AV 2018-10-14 15:32:45.527 ALARM
18-1002583 18-11783 100 BROOKSIDE DR 2018-10-14 15:32:13.670 ACCIDENT - PRIVATE PROPERTY
18-1002582 715 CHERUB DR 2018-10-14 15:28:54.943 RECKLESS DRIVER
18-1002581 825 OAK ST 2018-10-14 15:22:10.587 CHECK ON THE WELFARE
18-1002580 1499 MANOR ST 2018-10-14 15:16:55.183 SUSPICIOUS ACTIVITY
18-1002579 2790 SUMMERSET DR 2018-10-14 15:09:30.427 SERVING SUBPOENA
18-1002577 475 ROBINS ST 2018-10-14 14:47:27.487 DOMESTIC DISTURBANCE
18-1002576 18-11782 801 ELSINGER BLVD 2018-10-14 14:36:46.230 SHOPLIFTING
18-1002574 18-11781 2335 REMINGTON RD 2018-10-14 14:16:21.667 SERVING SUBPOENA
18-1002572 1622 CHERRY ST 2018-10-14 14:08:33.260 SERVING SUBPOENA
18-1002571 1770 MILESTONE DR 2018-10-14 13:57:59.693 ATTEMPT TO CONTACT
18-1002570 18-11780 1400 SALEM RD 2018-10-14 13:44:31.093 ACCIDENT - PROPERTY DAMAGE
18-1002569 18-11779 1000 S AMITY RD 2018-10-14 13:36:44.850 ACCIDENT - PROPERTY DAMAGE
18-1002568 1019 FRONT ST 2018-10-14 12:59:56.550 ALARM - BANK
18-1002567 3171 EGGMAN LN 2018-10-14 12:57:05.370 ALARM
18-1002564 1333 BEAN ST 2018-10-14 12:27:28.453 DOMESTIC DISTURBANCE
18-1002562 808 FRONT ST 2018-10-14 12:19:30.343 SUPPLEMENT REPORT CALL
18-1002561 1400 GARDENIA 2018-10-14 12:17:33.467 PROPERTY DAMAGE
18-1002560 1135 DOODLE CIR 2018-10-14 11:59:01.400 DOMESTIC DISTURBANCE
18-1002559 3700 JEANNA DR 2018-10-14 11:48:07.270 CHECKING PERSON
18-1002558 1155 SKYLINE DR 2018-10-14 11:45:36.603 CHECKING PERSON
18-1002555 1073 FRONT ST 2018-10-14 11:16:42.887 SUSPICIOUS PERSON
18-1002553 21 BERNARD DR 2018-10-14 11:07:07.010 ATTEMPT TO CONTACT
18-1002552 18-11777 607 5TH ST 2018-10-14 10:54:50.217 CRIMINAL MISCHIEF
18-1002551 83 AZALEA LP 2018-10-14 10:42:46.590 SUPPLEMENT REPORT CALL
18-1002550 220 E OAK ST 2018-10-14 10:39:06.427 CHECK ON THE WELFARE
18-1002547 18-11776 801 SOUTH GERMAN LN 2018-10-14 10:14:58.660 ACCIDENT - PRIVATE PROPERTY
18-1002546 620 CHESTNUT ST 2018-10-14 09:29:36.800 PURSUIT DRILL
18-1002542 1300 GRANDVIEW HEIGHTS DR 2018-10-14 09:04:16.040 SUPPLEMENT REPORT CALL
18-1002541 285 S ASH ST 2018-10-14 08:38:30.913 SERVING SUBPOENA
18-1002540 18-11775 1701 HAIRSTON AV 2018-10-14 08:27:35.053 TERRORISTIC THREATENING
18-1002539 1475 ARAPAHO TRL 2018-10-14 08:26:33.417 ATTEMPT TO CONTACT
18-1002538 1040 RIO GRANDE RD 2018-10-14 08:26:10.393 ATTEMPT TO CONTACT
18-1002537 429 ANGUS ST 2018-10-14 08:18:43.153 SUSPICIOUS PERSON
18-1002536 5325 FOWLER DR 2018-10-14 08:17:37.273 SERVING SUBPOENA
18-1002535 1770 MILESTONE DR 2018-10-14 08:14:46.123 SERVING SUBPOENA
18-1002534 1430 ARDEN LN 2018-10-14 08:08:23.877 SERVING SUBPOENA
18-1002533 955 SOUTH GERMAN LN 2018-10-14 08:04:56.817 SERVING SUBPOENA
18-1002530 18-11774 835 WESTIN PARK DR 2018-10-14 08:01:09.897 SERVING SUBPOENA
18-1002529 1472 HARTJE LN 2018-10-14 07:59:28.013 SERVING SUBPOENA
18-1002527 1404 HARTJE LN 2018-10-14 07:56:55.223 SERVING SUBPOENA
18-1002526 800 MALLARD LN 2018-10-14 07:54:28.507 SERVING SUBPOENA
18-1002525 711 S DAVIS ST 2018-10-14 07:44:22.007 CHECK ON THE WELFARE
18-1002524 18-11771 1750 POTEETE DR 2018-10-14 07:43:07.950 SERVING SUBPOENA
18-1002522 1750 VILLAGE COMMONS DR 2018-10-14 06:58:33.610 CITIZEN ASSIST
18-1002521 2302 COLLEGE AV 2018-10-14 04:37:55.670 DISTURBANCE
18-1002518 301 DONAGHEY AV 2018-10-14 03:55:44.473 CHECKING VEHICLE
18-1002517 500 SOUTH GERMAN LN 2018-10-14 03:51:40.473 STALLED VEHICLE
18-1002516 1615 HIGHPOINT DR 2018-10-14 03:36:54.590 LOUD NOISE-MUSIC
18-1002515 18-11770 701 1ST AV 2018-10-14 02:39:01.557 TRESPASSING
18-1002512 18-11769 1619 WESTLAKE DR 2018-10-14 01:58:04.290 DOMESTIC DISTURBANCE
18-1002511 1010 MAIN ST 2018-10-14 01:25:54.277 MISSING PERSON
18-1002510 201 SKYLINE DR 2018-10-14 01:15:00.273 ATTEMPT TO CONTACT
18-1002508 350 DONAGHEY AV 2018-10-14 01:08:52.330 CITIZEN ASSIST
18-1002507 5330 APRIL DR 2018-10-14 00:36:40.260 ATTEMPT TO CONTACT
18-1002505 545 SKYLINE DR 2018-10-14 00:33:44.617 RECKLESS DRIVER
18-1002504 1911 HOGAN LN 2018-10-14 00:15:22.250 FIRE DEPT ASSIST
18-1002502 1 CADRON SETTLEMENT PARK RD 2018-10-14 00:07:45.510 CHECKING BUILDING
18-1002501 350 E OAK ST 2018-10-14 00:02:54.150 LOITERING
18-1002499 1295 JOYNER DR 2018-10-13 23:15:14.370 CHECK ON THE WELFARE
18-1002497 18-11768 350 SKYLINE DR 2018-10-13 23:01:09.857 CHECKING VEHICLE
18-1002496 4095 PRINCE ST 2018-10-13 22:42:34.560 DISTURBANCE
18-1002495 3196 COLLEGE AV 2018-10-13 22:29:11.263 CHECK ON THE WELFARE
18-1002494 2018-10-13 22:28:19.910 RECOVERED PROPERTY
18-1002493 1899 MILESTONE DR 2018-10-13 21:52:25.050 SUSPICIOUS VEHICLE
18-1002492 2050 DAVE WARD DR 2018-10-13 21:44:38.983 ATTEMPT TO CONTACT
18-1002491 3900 DAVE WARD DR 2018-10-13 21:24:56.510 ATTEMPT TO CONTACT
18-1002490 1485 OLD MORRILTON HWY 2018-10-13 21:21:19.967 CHECKING VEHICLE
18-1002489 1395 GARDENIA 2018-10-13 21:09:33.687 SUSPICIOUS ACTIVITY
18-1002488 565 2ND AV 2018-10-13 20:49:33.673 SERVING SUBPOENA
18-1002487 127 S DONAGHEY AV 2018-10-13 20:46:45.030 BURGLARY
18-1002486 1405 S DONAGHEY AV 2018-10-13 20:44:23.297 SUSPICIOUS PERSON
18-1002485 2645 PRINCE ST 2018-10-13 20:38:14.880 DOMESTIC DISTURBANCE
18-1002484 216 LOWER RIDGE RD 2018-10-13 20:35:09.037 SHOTS FIRED
18-1002482 1272 TURNBERRY DR 2018-10-13 20:17:34.127 SUPPLEMENT REPORT CALL
18-1002481 3265 VINEYARD DR 2018-10-13 20:10:27.230 ALARM
18-1002480 516 GROVE ST 2018-10-13 19:58:08.830 ATTEMPT TO CONTACT
18-1002478 18-11766 800 S DONAGHEY AV 2018-10-13 19:47:45.327 ACCIDENT - PROPERTY DAMAGE
18-1002477 310 S HARKRIDER DR 2018-10-13 19:43:43.510 OPEN DOOR/WINDOW/FENCE
18-1002474 1405 S DONAGHEY AV 2018-10-13 19:16:48.867 DOMESTIC DISTURBANCE
18-1002473 5340 APRIL DR 2018-10-13 19:16:28.837 CHECK ON THE WELFARE
18-1002472 1405 GARDENIA 2018-10-13 19:12:45.770 ALARM
18-1002470 5240 SHAKESPEARE DR 2018-10-13 19:02:36.917 ALARM
18-1002469 601 ELSINGER BLVD 2018-10-13 18:55:11.610 SHOPLIFTING
18-1002468 3200 OLD MORRILTON HWY 2018-10-13 18:45:04.110 TRESPASSING
18-1002467 18-11765 800 S DONAGHEY AV 2018-10-13 18:43:43.897 ACCIDENT - PROPERTY DAMAGE
18-1002465 2119 HAIRSTON AV 2018-10-13 18:15:36.260 ATTEMPT TO CONTACT
18-1002464 2200 MEADOWLAKE RD 2018-10-13 18:13:18.480 ATTEMPT TO CONTACT
18-1002462 18-11764 475 ROBINS ST 2018-10-13 17:59:50.787 BATTERY REPORT
18-1002461 18-11772 2119 HAIRSTON AV 2018-10-13 17:53:15.930 ATTEMPT TO CONTACT
18-1002460 1105 PRAIRIE ST 2018-10-13 17:46:35.663 SERVING SUBPOENA
18-1002459 2790 SUMMERSET DR 2018-10-13 17:45:57.163 ATTEMPT TO CONTACT
18-1002458 1750 POTEETE DR 2018-10-13 17:41:20.400 ATTEMPT TO CONTACT
18-1002457 18-11773 46 BRIER SPRINGS DR 2018-10-13 17:38:56.040 ATTEMPT TO CONTACT
18-1002456 1601 HOGAN LN 2018-10-13 17:35:32.350 ATTEMPT TO CONTACT
18-1002455 314 ELIZABETH ST 2018-10-13 17:31:13.277 SERVING SUBPOENA
18-1002454 1040 RIO GRANDE RD 2018-10-13 17:28:18.167 ATTEMPT TO CONTACT
18-1002453 2414 ROBINSON AV 2018-10-13 17:28:01.693 SERVING SUBPOENA
18-1002451 5325 FOWLER DR 2018-10-13 17:21:22.377 ATTEMPT TO CONTACT
18-1002450 955 SOUTH GERMAN LN 2018-10-13 17:20:36.607 SERVING SUBPOENA
18-1002448 18-11763 1955 KEATHLEY DR 2018-10-13 17:17:57.547 BURGLARY
18-1002447 4835 WESTIN PARK DR 2018-10-13 17:10:40.043 ATTEMPT TO CONTACT
18-1002446 1700 APPALACHAIN DR 2018-10-13 17:10:24.537 SERVING SUBPOENA
18-1002445 1153 HARKRIDER ST 2018-10-13 17:07:08.660 FOUND PROPERTY
18-1002444 1430 ARDEN LN 2018-10-13 17:02:43.600 SERVING SUBPOENA
18-1002443 800 MALLARD LN 2018-10-13 17:01:04.057 ATTEMPT TO CONTACT
18-1002442 1472 HARTJE LN 2018-10-13 16:54:57.453 SERVING SUBPOENA
18-1002441 1404 HARTJE LN 2018-10-13 16:53:09.860 SERVING SUBPOENA
18-1002440 822 TEAL DR 2018-10-13 16:52:54.960 SERVING SUBPOENA
18-1002439 740 S HARKRIDER DR 2018-10-13 16:49:06.997 TRAFFIC PROBLEM-CONTROL
18-1002438 475 ROBINS ST 2018-10-13 16:45:07.613 BURGLARY
18-1002437 18-11762 1611 E OAK ST 2018-10-13 16:42:36.260 HARASSING COMMUNICATIONS
18-1002436 360 NAVAHO TRL 2018-10-13 16:37:15.070 BARKING DOG COMPLAINT
18-1002435 300 S DONAGHEY AV 2018-10-13 16:26:42.923 CHECK ON THE WELFARE
18-1002434 1105 PRAIRIE ST 2018-10-13 16:23:29.780 SERVING SUBPOENA
18-1002433 1620 MIDDLE RD 2018-10-13 16:03:51.253 INTOXICATED DRIVER
18-1002432 18-11760 1907 HOGAN LN 2018-10-13 15:31:43.330 CHECK ON THE WELFARE
18-1002431 18-11761 678 ELSINGER BLVD 2018-10-13 15:27:46.817 ACCIDENT - PRIVATE PROPERTY
18-1002429 3301 IRBY DR 2018-10-13 15:01:23.750 TRAFFIC PROBLEM-CONTROL
18-1002428 18-11759 808 FRONT ST 2018-10-13 14:59:49.510 LOST PROPERTY
18-1002427 18-11758 2610 FLORENCE MATTISON DR 2018-10-13 14:57:05.227 DISTURBANCE
18-1002426 1405 S DONAGHEY AV 2018-10-13 14:45:41.287 UNKNOWN TROUBLE
18-1002425 360 NAVAHO TRL 2018-10-13 14:33:22.823 BARKING DOG COMPLAINT
18-1002424 2610 FLORENCE MATTISON DR 2018-10-13 14:22:17.027 UNKNOWN TROUBLE
18-1002423 125 I40EB 2018-10-13 14:21:43.130 ACCIDENT - PROPERTY DAMAGE
18-1002422 18-11756 400 S DONAGHEY AV 2018-10-13 14:08:30.720 LOST-STOLEN LICENSE PLATE
18-1002420 1500 MUSEUM RD 2018-10-13 13:52:35.323 ALARM - HOLD UP or PANIC
18-1002419 18-11755 1901 E OAK ST 2018-10-13 13:40:48.377 ACCIDENT - PROPERTY DAMAGE
18-1002417 2299 DAVE WARD DR 2018-10-13 13:35:17.777 ACCIDENT - PRIVATE PROPERTY
18-1002416 1405 S DONAGHEY AV 2018-10-13 13:25:36.300 DOMESTIC DISTURBANCE
18-1002415 2808 TIMBERPEG CT 2018-10-13 13:03:18.933 CHECKING PERSON
18-1002414 2400 BRUCE ST 2018-10-13 12:48:23.147 AGENCY ASSIST
18-1002413 3210 PEBBLE BEACH DR 2018-10-13 12:15:52.727 ATTEMPT TO CONTACT
18-1002412 18-11754 2300 PRINCE ST 2018-10-13 12:08:23.727 RUNAWAY
18-1002411 466 HARKRIDER ST 2018-10-13 11:58:34.133 CHECK ON THE WELFARE
18-1002409 2018-10-13 11:44:29.923 MISSING PERSON
18-1002408 2450 TYLER ST 2018-10-13 11:03:45.143 ROAD RAGE
18-1002407 3660 NUTTERS CHAPEL RD 2018-10-13 10:57:57.043 ALARM
18-1002406 814 E OAK ST 2018-10-13 10:56:47.903 ENDANGERING WELFARE OF MINOR
18-1002405 1501 HOGAN LN 2018-10-13 10:53:21.920 RECKLESS DRIVER
18-1002404 1100 E DAVE WARD DR 2018-10-13 10:42:04.080 ACCIDENT - PROPERTY DAMAGE
18-1002403 18-11753 1250 S AMITY RD 2018-10-13 10:42:03.690 ACCIDENT - PROPERTY DAMAGE
18-1002402 18-11752 4101 TYLER ST 2018-10-13 10:32:54.207 CRIMINAL MISCHIEF
18-1002400 2 NORTHWOOD DR 2018-10-13 10:26:32.443 FIRE DEPT ASSIST
18-1002399 2 NORTHWOOD DR 2018-10-13 10:26:29.993 FIRE DEPT ASSIST
18-1002397 1615 WESTLAKE DR 2018-10-13 10:25:49.713 REPOSSESSION
18-1002396 18-11751 1350 MCKAY AV 2018-10-13 10:12:56.557 ACCIDENT - PERSONAL INJURY
18-1002392 5350 WILDE DR 2018-10-13 09:46:18.747 SUPPLEMENT REPORT CALL
18-1002391 1191 STURGIS RD 2018-10-13 09:42:23.780 ALARM
18-1002390 189 KEATH CIR 2018-10-13 09:42:17.367 BREAKING OR ENTERING
18-1002388 1895 E OAK ST 2018-10-13 09:33:20.817 THEFT OF PROPERTY
18-1002387 2320 WASHINGTON AV 2018-10-13 09:05:40.220 UNKNOWN TROUBLE
18-1002386 18-11750 1725 BRITTANY CIR 2018-10-13 08:50:23.743 DOMESTIC DISTURBANCE
18-1002385 1720 OLD MORRILTON HWY 2018-10-13 08:29:14.550 ALARM
18-1002384 18-11749 825 2ND ST 2018-10-13 08:23:18.417 CHECKING PERSON
18-1002383 18-11748 2105 ARKANSAS AV 2018-10-13 08:17:50.440 THEFT OF PROPERTY
18-1002381 700 6TH ST 2018-10-13 07:58:06.703 CHECK ON THE WELFARE
18-1002377 18-11746 822 WATKINS ST 2018-10-13 06:31:32.243 THEFT OF SERVICES
18-1002376 1352 COLLEGE AV 2018-10-13 06:24:04.820 STALLED VEHICLE
18-1002375 17 MORNINGSIDE DR 2018-10-13 06:10:52.427 911 HANGUP CALL
18-1002374 2730 DAVE WARD DR 2018-10-13 05:36:14.620 DISTURBANCE
18-1002372 18-11745 2730 DAVE WARD DR 2018-10-13 04:18:27.800 DISORDERLY CONDUCT
18-1002371 711 FAIRVIEW ST 2018-10-13 03:52:56.090 SHOTS FIRED
18-1002370 18-11744 2730 DAVE WARD DR 2018-10-13 03:49:53.630 DOMESTIC DISTURBANCE
18-1002369 1911 WEEMS ST 2018-10-13 03:37:52.440 DISTURBANCE
18-1002368 18-11743 475 ROBINS ST 2018-10-13 02:37:24.870 DISTURBANCE
18-1002367 18-11742 650 CENTRAL LANDING BLVD 2018-10-13 02:23:37.167 BURGLARY
18-1002366 302 ANGUS ST 2018-10-13 02:22:32.910 ATTEMPT TO CONTACT
18-1002364 1900 TYLER ST 2018-10-13 01:52:00.773 CHECKING VEHICLE
18-1002363 1065 CLAYTON ST 2018-10-13 01:48:14.383 CHECKING PERSON
18-1002362 302 ANGUS ST 2018-10-13 01:20:26.827 CIVIL STAND BY
18-1002361 580 E DAVE WARD DR 2018-10-13 01:10:50.030 CHECKING PERSON
18-1002359 18-11739 1685 AMELIA DR 2018-10-13 00:38:29.330 DOMESTIC DISTURBANCE
18-1002358 25 TUCKER CREEK RD 2018-10-13 00:33:44.020 LOUD NOISE-MUSIC
18-1002357 2225 WIGGLE WORM RD 2018-10-13 00:29:11.407 MINOR IN POSSESSION
18-1002356 602 1ST AV 2018-10-13 00:26:28.667 CHECK ON THE WELFARE
18-1002355 18-11738 450 SKYLINE DR 2018-10-13 00:02:15.907 ACCIDENT - PRIVATE PROPERTY
18-1002353 20 KINLEY DR 2018-10-12 23:40:21.567 CHECKING VEHICLE
18-1002352 1740 MONACO DR 2018-10-12 23:20:13.107 911 HANGUP CALL
18-1002350 305 BRUCE ST 2018-10-12 23:18:00.303 SUSPICIOUS PERSON
18-1002348 2430 SANDERS ST 2018-10-12 23:08:26.220 CHECK ON THE WELFARE
18-1002347 1105 SKYLINE DR 2018-10-12 22:57:41.887 CHECKING VEHICLE
18-1002346 5395 LANTANA DR 2018-10-12 22:49:41.250 ALARM
18-1002345 701 REEDY RD 2018-10-12 22:41:25.820 TERRORISTIC THREATENING
18-1002343 130 HARKRIDER ST 2018-10-12 22:15:58.337 THEFT OF SERVICES
18-1002342 18-11736 1265 HARKRIDER ST 2018-10-12 21:42:03.583 HARASSING COMMUNICATIONS
18-1002340 1001 MCNUTT RD 2018-10-12 21:41:34.910 TRESPASSING
18-1002339 18-11732 2300 PRINCE ST 2018-10-12 21:36:53.033 ACCIDENT - PRIVATE PROPERTY
18-1002338 18-11734 823 OAK ST 2018-10-12 21:35:49.493 CHECKING VEHICLE
18-1002335 3900 DAVE WARD DR 2018-10-12 21:12:03.177 SHOPLIFTING
18-1002333 101 OAK ST 2018-10-12 20:46:12.217 CHECKING PERSON
18-1002329 1000 MORNINGSIDE DR 2018-10-12 19:49:51.253 DISTURBANCE
18-1002328 18-11731 2164 HARKRIDER ST 2018-10-12 19:48:22.520 CHECKING VEHICLE
18-1002326 18-11730 430 WHITNEY WOODS RD 2018-10-12 19:29:06.460 BREAKING OR ENTERING
18-1002324 18-11729 1955 KEATHLEY DR 2018-10-12 19:01:41.257 BURGLARY
18-1002323 18-11728 401 2ND ST 2018-10-12 18:46:20.553 CRIMINAL MISCHIEF
18-1002322 1135 VERBENA DR 2018-10-12 18:32:38.100 DOMESTIC DISTURBANCE
18-1002321 931 FAULKNER ST 2018-10-12 18:29:31.600 TRESPASSING
18-1002320 1485 OLD MORRILTON HWY 2018-10-12 18:25:02.640 AGENCY ASSIST
18-1002319 2455 WASHINGTON AV 2018-10-12 18:10:45.960 INTOXICATED DRIVER
18-1002318 52 KENSINGTON DR 2018-10-12 17:56:47.643 SUSPICIOUS ACTIVITY
18-1002317 645 EXCHANGE AV 2018-10-12 17:53:51.813 ALARM
18-1002316 18-11727 475 ROBINS ST 2018-10-12 17:50:00.340 DOMESTIC DISTURBANCE
18-1002315 1918 ROBINSON AV 2018-10-12 17:45:46.057 SUPPLEMENT REPORT CALL
18-1002314 1000 BOB COURTWAY DR 2018-10-12 17:42:30.683 RECKLESS DRIVER
18-1002313 1100 PINE ST 2018-10-12 17:41:57.750 RECKLESS DRIVER
18-1002312 18-11726 5350 WILDE DR 2018-10-12 17:21:36.570 HARASSING COMMUNICATIONS
18-1002311 618 OAK ST 2018-10-12 17:17:42.997 DOMESTIC DISTURBANCE
18-1002310 1155 DAVE WARD DR 2018-10-12 17:06:00.667 SUSPICIOUS VEHICLE
18-1002307 274 LOWER RIDGE RD 2018-10-12 16:47:57.987 ALARM
18-1002306 18-11724 2599 WASHINGTON AV 2018-10-12 16:40:35.430 ACCIDENT - PROPERTY DAMAGE
18-1002304 2302 COLLEGE AV 2018-10-12 16:38:00.300 ACCIDENT - PROPERTY DAMAGE
18-1002303 505 DAVE WARD DR 2018-10-12 16:28:40.040 ATTEMPT TO CONTACT
18-1002301 18-11722 205 E OAK ST 2018-10-12 16:07:28.100 FORGERY
18-1002299 3900 DAVE WARD DR 2018-10-12 16:00:56.507 ALARM - BANK
18-1002297 18-11720 905 E OAK ST 2018-10-12 15:55:47.140 ACCIDENT - PRIVATE PROPERTY
18-1002295 18-11721 1000 EAST GERMAN LN 2018-10-12 15:48:05.067 ACCIDENT - PROPERTY DAMAGE
18-1002294 1000 EAST GERMAN LN 2018-10-12 15:48:03.163 ACCIDENT - PROPERTY DAMAGE
18-1002292 1465 MADDOX DR 2018-10-12 15:40:34.677 SUSPICIOUS ACTIVITY
18-1002291 18-11719 407 OAK ST 2018-10-12 15:26:48.120 FOUND PROPERTY
18-1002290 18-11718 601 ELSINGER BLVD 2018-10-12 15:11:13.410 SHOPLIFTING
18-1002289 600 SKYLINE DR 2018-10-12 15:08:55.380 ATTEMPT TO CONTACT
18-1002288 18-11717 1120 EAST GERMAN LN 2018-10-12 15:03:12.160 SHOPLIFTING
18-1002285 801 E SIEBENMORGEN RD 2018-10-12 14:54:06.237 ROAD RAGE
18-1002282 2200 MEADOWLAKE RD 2018-10-12 14:44:15.647 ATTEMPT TO CONTACT
18-1002280 520 2ND ST 2018-10-12 14:20:58.563 SUPPLEMENT REPORT CALL
18-1002279 18-11716 1155 SKYLINE DR 2018-10-12 14:18:46.197 ACCIDENT - PRIVATE PROPERTY
18-1002278 1300 LOLLIE RD 2018-10-12 14:16:22.520 SUSPICIOUS VEHICLE
18-1002277 18-11715 1105 PRAIRIE ST 2018-10-12 14:01:52.143 INTERFERENCE WITH CUSTODY
18-1002276 1405 S DONAGHEY AV 2018-10-12 14:01:09.073 ATTEMPT TO CONTACT
18-1002274 965 KNIGHTS DR 2018-10-12 13:51:39.607 PROPERTY DAMAGE
18-1002272 18-11713 801 ELSINGER BLVD 2018-10-12 13:46:57.743 THEFT OF PROPERTY
18-1002271 18-11712 3900 DAVE WARD DR 2018-10-12 13:42:25.367 ACCIDENT - PRIVATE PROPERTY
18-1002268 18-11710 824 SALEM RD 2018-10-12 13:15:36.077 ACCIDENT - PRIVATE PROPERTY
18-1002267 1495 GARDENIA 2018-10-12 13:11:59.220 ATTEMPT TO CONTACT
18-1002266 18-11723 1 CADRON SETTLEMENT PARK RD 2018-10-12 13:10:36.227 ACCIDENT - PRIVATE PROPERTY
18-1002265 322 ASH ST 2018-10-12 13:00:28.273 DOMESTIC DISTURBANCE
18-1002263 2270 MEADOWLAKE RD 2018-10-12 12:47:58.673 CITIZEN ASSIST
18-1002262 201 SKYLINE DR 2018-10-12 12:40:46.363 CITIZEN ASSIST
18-1002261 18-11708 3125 DONNELL RIDGE RD 2018-10-12 12:39:36.240 FOUND PROPERTY
18-1002258 18-11707 515 HARKRIDER ST 2018-10-12 12:20:55.017 ACCIDENT - PROPERTY DAMAGE
18-1002257 18-11706 3170 PEBBLE BEACH DR 2018-10-12 12:17:22.277 TERRORISTIC THREATENING
18-1002255 1105 PRAIRIE ST 2018-10-12 12:08:25.337 ATTEMPT TO CONTACT
18-1002254 18-11705 380 HARKRIDER ST 2018-10-12 12:05:55.873 SHOPLIFTING
18-1002252 1500 HARKRIDER ST 2018-10-12 11:51:52.670 TRAFFIC PROBLEM-CONTROL
18-1002251 2675 FAVRE LN 2018-10-12 11:50:37.417 SUPPLEMENT REPORT CALL
18-1002250 270 E SKYLINE DR 2018-10-12 11:42:10.693 ATTEMPT TO CONTACT
18-1002249 310 S MITCHELL ST 2018-10-12 11:40:57.873 THEFT OF PROPERTY
18-1002247 130 HARKRIDER ST 2018-10-12 11:27:03.033 CRIMINAL MISCHIEF
18-1002246 180 NIAGRA FALLS 2018-10-12 11:26:33.283 ALARM
18-1002244 1155 CUMULUS DR 2018-10-12 11:12:47.603 UNKNOWN TROUBLE
18-1002243 18-11702 201 SKYLINE DR 2018-10-12 11:08:50.887 SHOPLIFTING
18-1002240 2290 REMINGTON RD 2018-10-12 10:57:54.200 SUPPLEMENT REPORT CALL
18-1002239 1830 S SALEM RD 2018-10-12 10:52:17.893 SUPPLEMENT REPORT CALL
18-1002238 1830 S SALEM RD 2018-10-12 10:45:54.317 ATTEMPT TO CONTACT
18-1002235 1640 E OAK ST 2018-10-12 10:34:33.233 FRAUD
18-1002234 2102 BRUCE ST 2018-10-12 10:31:33.753 CITIZEN ASSIST
18-1002233 18-11689 550 E DAVE WARD DR 2018-10-12 10:30:56.733 ACCIDENT - PROPERTY DAMAGE
18-1002232 1155 CUMULUS DR 2018-10-12 10:21:47.283 UNKNOWN TROUBLE
18-1002231 525 WESTERN AV 2018-10-12 10:17:22.363 DISTURBANCE
18-1002230 1235 SUTTON ST 2018-10-12 10:15:19.280 SUPPLEMENT REPORT CALL
18-1002229 127 I40WB 2018-10-12 10:11:54.387 STALLED VEHICLE
18-1002226 1267 HARTON ST 2018-10-12 10:04:46.227 CIVIL MATTER
18-1002225 1804 HUTTO ST 2018-10-12 09:54:18.353 CRIMINAL MISCHIEF
18-1002224 18-11698 400 S AMITY RD 2018-10-12 09:53:12.037 BURGLARY
18-1002221 530 S DONAGHEY AV 2018-10-12 09:43:30.997 CIVIL STAND BY
18-1002218 3125 COLLEGE AV 2018-10-12 09:22:11.443 SUPPLEMENT REPORT CALL
18-1002215 309 EXCHANGE AV 2018-10-12 09:08:06.497 SUSPICIOUS ACTIVITY
18-1002213 2515 W MARTIN ST 2018-10-12 08:55:48.737 CHECK ON THE WELFARE
18-1002212 420 LOUISE LN 2018-10-12 08:46:44.153 BREAKING OR ENTERING
18-1002211 1325 OLD MORRILTON HWY 2018-10-12 08:18:08.123 TERRORISTIC THREATENING
18-1002209 1701 DAVE WARD DR 2018-10-12 08:09:07.233 CIVIL STAND BY
18-1002208 18-11687 2835 PEBBLE BEACH DR 2018-10-12 07:57:37.193 BREAKING OR ENTERING
18-1002207 18-11685 3125 COLLEGE AV 2018-10-12 07:54:28.293 BREAKING OR ENTERING
18-1002206 18-11684 701 1ST AV 2018-10-12 07:47:38.383 CIVIL MATTER
18-1002205 215 FARRIS RD 2018-10-12 07:38:55.827 ALARM
18-1002204 18-11683 1870 S SALEM RD 2018-10-12 07:14:40.180 BREAKING OR ENTERING
18-1002203 18-11680 431 MILDRED ST 2018-10-12 07:06:50.120 BREAKING OR ENTERING
18-1002202 2905 PEBBLE BEACH DR 2018-10-12 07:00:50.583 ATTEMPT TO CONTACT
18-1002201 18-11681 1830 S SALEM RD 2018-10-12 06:58:47.670 THEFT OF VEHICLE
18-1002200 18-11679 425 MILDRED ST 2018-10-12 06:24:43.857 BREAKING OR ENTERING
18-1002198 130 HARKRIDER ST 2018-10-12 05:05:03.593 CIVIL MATTER
18-1002196 2670 DONAGHEY AV 2018-10-12 03:52:41.417 ALARM
18-1002195 1825 PEARCE ST 2018-10-12 03:47:56.450 BURGLARY
18-1002194 18-11677 860 S SALEM RD 2018-10-12 03:42:49.017 ROBBERY
18-1002193 625 SALEM RD 2018-10-12 03:22:39.137 ALARM
18-1002192 601 ELSINGER BLVD 2018-10-12 02:01:37.083 ALARM
18-1002191 1000 MORNINGSIDE DR 2018-10-12 01:58:20.693 ALARM - HOLD UP or PANIC
18-1002190 1825 PEARCE ST 2018-10-12 01:34:44.080 SUSPICIOUS VEHICLE
18-1002187 18-11676 2000 SILVER SPRINGS CIR 2018-10-12 00:24:36.250 SUSPICIOUS PERSON
18-1002186 2018-10-12 00:09:34.610 ATTEMPT TO CONTACT
18-1002184 2140 KRYSTAL KREEK DR 2018-10-12 00:05:52.090 SUSPICIOUS VEHICLE
18-1002183 2730 DAVE WARD DR 2018-10-11 23:31:13.753 LOUD NOISE-MUSIC
18-1002181 1750 POINSETTIA DR 2018-10-11 23:16:50.163 ATTEMPT TO CONTACT
18-1002180 2475 WASHINGTON AV 2018-10-11 23:13:09.080 ACCIDENT - PRIVATE PROPERTY
18-1002178 11 GINGER DR 2018-10-11 22:51:45.867 OPEN DOOR/WINDOW/FENCE
18-1002176 1800 MARTIN ST 2018-10-11 22:41:31.473 CHECK ON THE WELFARE
18-1002175 18-11674 1701 DAVE WARD DR 2018-10-11 22:22:37.423 DOMESTIC DISTURBANCE
18-1002174 18-11675 855 SALEM RD 2018-10-11 22:16:40.947 ACCIDENT - PRIVATE PROPERTY
18-1002172 1805 SOUTH BLVD 2018-10-11 22:11:49.613 CHECK ON THE WELFARE
18-1002171 2302 COLLEGE AV 2018-10-11 22:06:54.523 CHECK ON THE WELFARE
18-1002170 18-11673 1931 MARTIN ST 2018-10-11 21:49:44.183 DOMESTIC DISTURBANCE
18-1002169 2280 SANDERS ST 2018-10-11 21:45:56.203 ALARM
18-1002163 1701 DAVE WARD DR 2018-10-11 20:53:22.487 DOMESTIC DISTURBANCE
18-1002161 18-11672 1065 CLAYTON ST 2018-10-11 20:34:40.467 ACCIDENT - PRIVATE PROPERTY
18-1002159 100 HOGAN LN 2018-10-11 20:16:24.030 CHECK ON THE WELFARE
18-1002158 1004 OAK ST 2018-10-11 19:54:51.700 CHECK ON THE WELFARE
18-1002157 4 WOODLAWN DR 2018-10-11 19:49:21.260 DOMESTIC DISTURBANCE
18-1002156 575 5TH AV 2018-10-11 19:39:51.170 ALARM
18-1002153 18-11670 3900 DAVE WARD DR 2018-10-11 19:29:04.340 DISTURBANCE
18-1002152 18-11671 2603 DAVE WARD DR 2018-10-11 19:28:18.727 BATTERY REPORT
18-1002151 1931 MARTIN ST 2018-10-11 19:20:45.670 DOMESTIC DISTURBANCE
18-1002150 300 S DONAGHEY AV 2018-10-11 19:12:06.903 CIVIL MATTER
18-1002149 145 GRAND FALLS 2018-10-11 19:05:55.357 REPOSSESSION
18-1002145 18-11669 127 I40EB 2018-10-11 18:34:15.670 ACCIDENT - PROPERTY DAMAGE
18-1002143 2018-10-11 18:16:41.120 RECOVERED PROPERTY
18-1002141 18-11668 1120 EAST GERMAN LN 2018-10-11 18:09:34.003 FRAUD
18-1002140 1800 STURGIS RD 2018-10-11 18:02:02.083 ALARM
18-1002139 1700 DONAGHEY AV 2018-10-11 18:00:51.370 TRAFFIC LIGHT PROBLEM
18-1002138 475 ROBINS ST 2018-10-11 17:55:01.350 CIVIL MATTER
18-1002137 18-11666 201 SKYLINE DR 2018-10-11 17:51:12.400 THEFT OF PROPERTY
18-1002135 530 DAVIS ST 2018-10-11 17:38:56.437 CIVIL MATTER
18-1002134 1090 SKYLINE DR 2018-10-11 17:36:16.753 FRAUD
18-1002133 2255 STURGIS RD 2018-10-11 17:25:38.413 ABUSE
18-1002132 324 SOUTH GERMAN LN 2018-10-11 17:19:11.390 ALARM
18-1002131 18-11664 915 FAULKNER ST 2018-10-11 17:03:08.677 LOST-STOLEN LICENSE PLATE
18-1002130 18-11665 1001 HARKRIDER ST 2018-10-11 17:01:52.003 ACCIDENT - PROPERTY DAMAGE
18-1002129 2370 SANDERS ST 2018-10-11 16:59:22.070 CHECKING VEHICLE
18-1002128 18-11667 475 ROBINS ST 2018-10-11 16:58:01.790 ATTEMPT TO CONTACT
18-1002127 18-11663 1105 E OAK ST 2018-10-11 16:43:24.583 ACCIDENT - PROPERTY DAMAGE
18-1002126 915 FAULKNER ST 2018-10-11 16:32:04.840 LOST-STOLEN LICENSE PLATE
18-1002125 2260 SANDERS ST 2018-10-11 16:26:36.100 TRESPASSING
18-1002123 18-11662 1611 E OAK ST 2018-10-11 16:22:30.287 ACCIDENT - HIT AND RUN
18-1002122 380 HARKRIDER ST 2018-10-11 16:21:53.517 CHECKING PERSON
18-1002119 18-11661 300 S DONAGHEY AV 2018-10-11 16:09:14.760 BURGLARY
18-1002118 1105 SKYLINE DR 2018-10-11 15:55:44.770 CHECKING PERSON
18-1002116 1 MEDICAL LN 2018-10-11 15:48:35.020 ATTEMPT TO CONTACT
18-1002115 18-11660 500 SOUTH GERMAN LN 2018-10-11 15:35:37.230 MISDEMEANOR WARRANT SERVICE
18-1002114 130 HARKRIDER ST 2018-10-11 15:31:10.080 CHECK ON THE WELFARE
18-1002113 130 HARKRIDER ST 2018-10-11 15:29:29.113 AGENCY ASSIST
18-1002110 18-11657 600 SKYLINE DR 2018-10-11 15:14:40.253 ACCIDENT - PROPERTY DAMAGE
18-1002109 18-11658 1760 S SALEM RD 2018-10-11 15:13:55.357 CRIMINAL MISCHIEF
18-1002108 18-11659 1499 MANOR ST 2018-10-11 15:11:15.330 CIVIL MATTER
18-1002107 2300 HOGAN LN 2018-10-11 15:06:18.677 SUSPICIOUS VEHICLE
18-1002105 2440 JERRY LEE DR 2018-10-11 15:02:39.917 AGENCY ASSIST
18-1002103 825 6TH ST 2018-10-11 14:59:53.027 TRAFFIC PROBLEM-CONTROL
18-1002102 18-11656 501 DONAGHEY AV 2018-10-11 14:59:31.030 ACCIDENT - PROPERTY DAMAGE
18-1002101 3 HAMPTON CV 2018-10-11 14:45:38.190 ROAD RAGE
18-1002099 18-11655 3005 PEBBLE BEACH DR 2018-10-11 14:42:25.730 CRIMINAL MISCHIEF
18-1002098 1499 MANOR ST 2018-10-11 14:42:20.910 CIVIL MATTER
18-1002096 6 W J SOWDER DR 2018-10-11 14:35:56.087 ATTEMPT TO CONTACT
18-1002093 813 OAK ST 2018-10-11 14:21:19.953 CHECKING PERSON
18-1002092 2018-10-11 14:08:31.557 ATTEMPT TO CONTACT
18-1002091 100 BROOKSIDE DR 2018-10-11 14:07:26.647 ATTEMPT TO CONTACT
18-1002088 899 LOCUST AV 2018-10-11 13:38:48.207 TRAFFIC PROBLEM-CONTROL
18-1002087 2695 DAVE WARD DR 2018-10-11 13:38:34.963 HARASSMENT
18-1002086 1836 BRUCE ST 2018-10-11 13:32:18.530 SUSPICIOUS ACTIVITY
18-1002085 1499 MANOR ST 2018-10-11 13:31:01.047 SUSPICIOUS ACTIVITY
18-1002084 500 ELSINGER BLVD 2018-10-11 13:28:16.620 SUSPICIOUS PERSON
18-1002083 18-11654 5305 TYLER ST 2018-10-11 13:27:54.407 CRIMINAL MISCHIEF
18-1002081 3040 ST CHARLES DR 2018-10-11 13:24:02.637 ALARM
18-1002080 18-11653 2125 HARKRIDER ST 2018-10-11 13:22:13.233 ACCIDENT - PRIVATE PROPERTY
18-1002077 405 DURHAM ST 2018-10-11 13:16:25.520 ATTEMPT TO CONTACT
18-1002076 600 S HARKRIDER DR 2018-10-11 13:04:42.457 ATTEMPT TO CONTACT
18-1002075 545 SKYLINE DR 2018-10-11 13:01:57.593 ALARM - HOLD UP or PANIC
18-1002074 18-11652 1900 COLLEGE AV 2018-10-11 13:01:46.813 ACCIDENT - PROPERTY DAMAGE
18-1002070 1000 GUM ST 2018-10-11 12:54:08.860 SUPPLEMENT REPORT CALL
18-1002068 18-11651 101 CLUB LN 2018-10-11 12:37:47.393 ACCIDENT - PROPERTY DAMAGE
18-1002064 2455 WASHINGTON AV 2018-10-11 12:17:48.557 SUSPICIOUS ACTIVITY
18-1002063 519 2ND ST 2018-10-11 12:14:02.963 SUPPLEMENT REPORT CALL
18-1002061 2325 HERMES DR 2018-10-11 12:11:30.333 ALARM
18-1002060 403 WATKINS ST 2018-10-11 12:10:15.017 INTERFERENCE WITH CUSTODY
18-1002058 18-11649 823 OAK ST 2018-10-11 11:53:19.200 ACCIDENT - PROPERTY DAMAGE
18-1002056 18-11650 1925 LEE AV 2018-10-11 11:29:44.893 CHECK ON THE WELFARE
18-1002054 817 E SIEBENMORGEN RD 2018-10-11 11:25:23.140 ALARM
18-1002052 18-11647 835 S DONAGHEY AV 2018-10-11 11:13:14.583 ACCIDENT - PRIVATE PROPERTY
18-1002051 1601 HOGAN LN 2018-10-11 11:09:30.927 VEHICLE TOW
18-1002048 625 TOMMY LEWIS DR 2018-10-11 10:57:59.123 CHECK ON THE WELFARE
18-1002046 1234 MAIN ST 2018-10-11 10:50:57.280 CHECK ON THE WELFARE
18-1002045 1255 FRENCH DR 2018-10-11 10:50:49.810 ATTEMPT TO CONTACT
18-1002044 427 S ASH ST 2018-10-11 10:46:26.637 VEHICLE TOW
18-1002041 2300 HOGAN LN 2018-10-11 10:38:05.560 PARKING VIOLATION
18-1002040 1410 SENA DR 2018-10-11 10:34:21.650 ATTEMPT TO CONTACT
18-1002039 129 I40EB 2018-10-11 10:27:23.880 CHECKING VEHICLE
18-1002033 155 APPLEGATE DR 2018-10-11 09:56:35.707 SUPPLEMENT REPORT CALL
18-1002031 825 WILLIAM J CLARK DR 2018-10-11 09:42:45.813 ALARM - HOLD UP or PANIC
18-1002030 2018-10-11 09:41:29.840 RECOVERED VEHICLE
18-1002028 2018-10-11 09:38:18.597 RECOVERED VEHICLE
18-1002022 500 SOUTH GERMAN LN 2018-10-11 08:59:49.127 MISDEMEANOR WARRANT SERVICE
18-1002021 766 HARKRIDER ST 2018-10-11 08:58:45.900 DOMESTIC DISTURBANCE
18-1002020 2125 HARKRIDER ST 2018-10-11 08:47:34.940 ALARM
18-1002018 132 LOWER RIDGE RD 2018-10-11 08:42:28.337 RECKLESS DRIVER
18-1002017 18-11646 27 BERNARD DR 2018-10-11 08:39:18.530 ATTEMPT TO CONTACT
18-1002016 18-11638 824 SALEM RD 2018-10-11 08:30:44.723 FRAUD
18-1002015 1601 HOGAN LN 2018-10-11 08:27:52.797 ATTEMPT TO CONTACT
18-1002013 2000 KEATHLEY DR 2018-10-11 07:25:01.067 DOMESTIC DISTURBANCE
18-1002012 3800 DAVE WARD DR 2018-10-11 07:11:13.370 ALARM
18-1002011 18-11635 580 E DAVE WARD DR 2018-10-11 07:01:15.467 ATTEMPT TO CONTACT
18-1002010 955 CAROLYN LN 2018-10-11 06:21:50.413 ALARM
18-1002009 1035 CALLOWAY DR 2018-10-11 06:09:15.417 ALARM
18-1002008 509 2ND AV 2018-10-11 04:31:53.170 CHECK ON THE WELFARE
18-1002006 1325 OLD MORRILTON HWY 2018-10-11 03:29:43.873 CHECKING PERSON
18-1002005 2300 HOGAN LN 2018-10-11 02:58:06.823 SUSPICIOUS VEHICLE
18-1002003 3550 CUTTER RIDGE RD 2018-10-11 01:59:12.670 SUSPICIOUS PERSON
18-1002002 1 CADRON SETTLEMENT PARK RD 2018-10-11 01:33:20.660 CHECKING VEHICLE
18-1002000 475 ROBINS ST 2018-10-11 00:56:43.323 ATTEMPT TO CONTACT
18-1001998 18-11634 1650 ROBINS ST 2018-10-11 00:37:26.950 BREAKING OR ENTERING
18-1001997 530 S DONAGHEY AV 2018-10-11 00:18:55.867 VEHICLE TOW
18-1001995 18-11633 1105 SKYLINE DR 2018-10-10 23:23:21.190 ATTEMPT TO CONTACT
18-1001991 134 HARKRIDER ST 2018-10-10 22:28:46.807 ATTEMPT TO CONTACT
18-1001983 3430 IRBY DR 2018-10-10 21:09:30.147 SUSPICIOUS ACTIVITY
18-1001982 776 HARKRIDER ST 2018-10-10 20:56:04.480 SUSPICIOUS VEHICLE
18-1001981 850 PADGETT RD 2018-10-10 20:37:49.853 ALARM
18-1001976 18-11630 2425 LANDOVER TRL 2018-10-10 20:13:22.930 HARASSMENT
18-1001972 99 TUCKER CREEK RD 2018-10-10 19:52:26.140 RECKLESS DRIVER
18-1001971 2445 EIGHTEEN LP 2018-10-10 19:42:07.817 CHECK ON THE WELFARE
18-1001970 899 ELSINGER BLVD 2018-10-10 19:41:12.140 CHECKING VEHICLE
18-1001969 18-11629 2500 DAVE WARD DR 2018-10-10 19:38:16.047 ATTEMPT TO CONTACT
18-1001968 1340 JOYNER DR 2018-10-10 19:34:36.863 ATTEMPT TO CONTACT
18-1001965 134 HARKRIDER ST 2018-10-10 19:17:44.713 ARMED SUBJECT
18-1001964 18-11625 2560 DONAGHEY AV 2018-10-10 19:14:44.890 SHOPLIFTING
18-1001962 18-11624 1830 OTT MEMORIAL BLVD 2018-10-10 19:02:27.960 ACCIDENT - PRIVATE PROPERTY
18-1001961 18-11622 1310 COLLIER DR 2018-10-10 18:51:34.627 STALKING
18-1001960 617 4TH AV 2018-10-10 18:42:48.577 CRIMINAL MISCHIEF
18-1001959 18-11621 1030 WINEBERRY RD 2018-10-10 18:36:53.110 ACCIDENT - PROPERTY DAMAGE
18-1001957 256 OAK ST 2018-10-10 18:30:19.660 SUPPLEMENT REPORT CALL
18-1001955 1962 BRUCE ST 2018-10-10 18:26:48.937 ATTEMPT TO CONTACT
18-1001954 1775 OLD MORRILTON HWY 2018-10-10 18:25:18.517 CIVIL MATTER
18-1001952 2310 ROBINSON AV 2018-10-10 18:07:36.230 ATTEMPT TO CONTACT
18-1001951 1701 SALEM RD 2018-10-10 18:04:28.013 SUPPLEMENT REPORT CALL
18-1001949 4240 BAY HILL DR 2018-10-10 17:53:04.680 SHOTS FIRED
18-1001948 875 SKYLINE DR 2018-10-10 17:51:15.560 DISTURBANCE
18-1001947 2100 PLEASANT VALLEY DR 2018-10-10 17:49:55.717 DISTURBANCE
18-1001946 150 E OAK ST 2018-10-10 17:41:41.210 SUPPLEMENT REPORT CALL
18-1001943 1090 SKYLINE DR 2018-10-10 17:36:37.757 SUSPICIOUS PERSON
18-1001942 2018-10-10 17:33:46.890 RECOVERED VEHICLE
18-1001941 18-11617 675 ROBINS ST 2018-10-10 17:30:36.270 DOMESTIC DISTURBANCE
18-1001939 18-11626 1840 POTEETE DR 2018-10-10 17:26:00.070 THEFT OF PROPERTY
18-1001938 18-11618 475 ROBINS ST 2018-10-10 17:18:27.433 DOMESTIC DISTURBANCE
18-1001937 801 SOUTH GERMAN LN 2018-10-10 17:13:12.593 CHECKING VEHICLE
18-1001936 3125 PEBBLE BEACH DR 2018-10-10 16:55:01.257 SUPPLEMENT REPORT CALL
18-1001934 1105 SKYLINE DR 2018-10-10 16:42:10.317 THEFT OF PROPERTY
18-1001933 18-11615 256 OAK ST 2018-10-10 16:41:39.803 ROBBERY
18-1001931 2600 JOHN ASHLEY 2018-10-10 16:34:49.113 ATTEMPT TO CONTACT
18-1001930 840 TURNER TRL 2018-10-10 16:29:45.240 CHECK ON THE WELFARE
18-1001929 18-11613 1701 SALEM RD 2018-10-10 16:25:19.100 ACCIDENT - PROPERTY DAMAGE
18-1001928 530 S DONAGHEY AV 2018-10-10 16:21:49.203 VEHICLE TOW
18-1001927 18-11611 1303 MITCHELL ST 2018-10-10 16:10:31.707 DISTURBANCE
18-1001924 18-11610 427 S ASH ST 2018-10-10 16:02:08.727 DISTURBANCE
18-1001923 1160 COLLIER DR 2018-10-10 15:59:45.613 ALARM
18-1001922 18-11616 2925 BILLY JACK DR 2018-10-10 15:57:59.330 BREAKING OR ENTERING
18-1001921 5501 PRINCE ST 2018-10-10 15:48:02.173 RECKLESS DRIVER
18-1001920 18-11608 1836 BRUCE ST 2018-10-10 15:47:09.680 ENDANGERING WELFARE OF MINOR
18-1001918 825 3RD AV 2018-10-10 15:46:12.847 PROPERTY DAMAGE
18-1001917 18-11606 1800 CALDWELL ST 2018-10-10 15:40:57.647 ACCIDENT - PROPERTY DAMAGE
18-1001915 18-11607 1601 HOGAN LN 2018-10-10 15:38:02.990 ACCIDENT - PROPERTY DAMAGE
18-1001914 18-11612 475 ROBINS ST 2018-10-10 15:37:23.457 CHECKING VEHICLE
18-1001913 2018-10-10 15:35:32.010 ATTEMPT TO CONTACT
18-1001912 816 E OAK ST 2018-10-10 15:24:04.513 CHECK ON THE WELFARE
18-1001909 1000 E SIEBENMORGEN RD 2018-10-10 15:05:22.460 ENDANGERING WELFARE OF MINOR
18-1001908 18-11604 1001 HARKRIDER ST 2018-10-10 14:59:47.120 ACCIDENT - PERSONAL INJURY
18-1001907 1200 OLD MORRILTON HWY 2018-10-10 14:55:41.793 CHECKING PERSON
18-1001906 18-11605 810 PARKWAY ST 2018-10-10 14:54:30.923 HARASSMENT
18-1001905 18-11603 1330 MCKAY AV 2018-10-10 14:49:52.540 FRAUD
18-1001901 18-11599 2050 DAVE WARD DR 2018-10-10 14:25:36.317 ACCIDENT - PROPERTY DAMAGE
18-1001899 500 SOUTH GERMAN LN 2018-10-10 14:19:24.050 MISDEMEANOR WARRANT SERVICE
18-1001898 18-11598 2050 DAVE WARD DR 2018-10-10 14:13:50.367 ACCIDENT - PROPERTY DAMAGE
18-1001897 1304 COLLIER DR 2018-10-10 14:10:03.850 LOST CHILD-FOUND CHILD
18-1001896 1836 BRUCE ST 2018-10-10 14:07:42.670 ENDANGERING WELFARE OF MINOR
18-1001895 1806 CLARA DR 2018-10-10 14:05:26.903 ALARM
18-1001894 1025 S DONAGHEY AV 2018-10-10 14:04:41.477 SUPPLEMENT REPORT CALL
18-1001893 2400 MARKET PLAZA DR 2018-10-10 14:03:01.590 TRESPASSING
18-1001891 2940 BILLY JACK DR 2018-10-10 13:48:26.843 CITIZEN ASSIST
18-1001890 1720 WARWICK HILLS LN 2018-10-10 13:36:03.700 ALARM
18-1001886 18-11595 199 SHAMROCK DR 2018-10-10 13:26:07.700 TRAFFIC PROBLEM-CONTROL
18-1001885 18-11591 2940 BILLY JACK DR 2018-10-10 13:25:39.247 BREAKING OR ENTERING
18-1001884 425 2ND AV 2018-10-10 13:22:09.457 ATTEMPT TO CONTACT
18-1001883 450 ROBINS ST 2018-10-10 13:17:19.823 ATTEMPT TO CONTACT
18-1001882 1860 S SALEM RD 2018-10-10 13:13:14.420 DOMESTIC DISTURBANCE
18-1001880 1025 PARKWAY ST 2018-10-10 13:06:45.867 TRESPASSING
18-1001878 12 AZALEA LP 2018-10-10 13:04:12.020 CHECK ON THE WELFARE
18-1001871 18-11589 301 DONAGHEY AV 2018-10-10 12:08:40.120 ACCIDENT - PROPERTY DAMAGE
18-1001870 517 5TH ST 2018-10-10 12:02:20.257 SUPPLEMENT REPORT CALL
18-1001869 450 SKYLINE DR 2018-10-10 11:59:51.557 TERRORISTIC THREATENING
18-1001867 3105 PEBBLE BEACH DR 2018-10-10 11:51:33.787 SUPPLEMENT REPORT CALL
18-1001866 18-11588 1001 HARKRIDER ST 2018-10-10 11:48:09.240 ACCIDENT - PROPERTY DAMAGE
18-1001862 127 I40EB 2018-10-10 11:26:49.440 STALLED VEHICLE
18-1001861 620 GRANDVIEW HEIGHTS DR 2018-10-10 11:25:11.453 THEFT OF PROPERTY
18-1001860 1919 MARTIN ST 2018-10-10 11:21:13.473 SUSPICIOUS VEHICLE
18-1001856 125 I40EB 2018-10-10 11:06:48.620 ACCIDENT - PROPERTY DAMAGE
18-1001855 18-11586 1050 ELLIS AV 2018-10-10 11:01:03.797 THEFT OF PROPERTY
18-1001853 2302 COLLEGE AV 2018-10-10 10:54:15.590 SUPPLEMENT REPORT CALL
18-1001852 404 S ASH ST 2018-10-10 10:43:26.240 HARASSMENT
18-1001851 1815 PRINCE ST 2018-10-10 10:39:29.417 BATTERY REPORT
18-1001850 906 PINE ST 2018-10-10 10:32:50.850 DOMESTIC DISTURBANCE
18-1001848 2945 WINDAMERE DR 2018-10-10 10:23:00.887 SUPPLEMENT REPORT CALL
18-1001846 18-11585 1405 S DONAGHEY AV 2018-10-10 10:21:00.047 BATTERY REPORT
18-1001845 2225 PRINCE ST 2018-10-10 10:19:58.520 ALARM
18-1001844 1404 HARTJE LN 2018-10-10 10:13:04.057 SERVING SUBPOENA
18-1001842 230 ASH ST 2018-10-10 10:04:11.580 HARASSMENT
18-1001841 18-11584 466 HARKRIDER ST 2018-10-10 09:58:46.817 HARASSING COMMUNICATIONS
18-1001840 2900 DAVE WARD DR 2018-10-10 09:46:25.373 FOUND PROPERTY
18-1001837 815 E OAK ST 2018-10-10 09:36:31.807 CIVIL MATTER
18-1001833 815 E OAK ST 2018-10-10 09:18:09.050 REPOSSESSION
18-1001828 1605 SYLAR CIR 2018-10-10 08:43:47.543 ALARM - HOLD UP or PANIC
18-1001827 4095 PRINCE ST 2018-10-10 08:29:30.740 DOMESTIC DISTURBANCE
18-1001825 1405 S DONAGHEY AV 2018-10-10 08:24:13.370 CHECK ON THE WELFARE
18-1001824 18-11575 3015 BILLY JACK DR 2018-10-10 08:23:12.093 BREAKING OR ENTERING
18-1001823 18-11574 1155 DAVE WARD DR 2018-10-10 08:10:01.310 ACCIDENT - PROPERTY DAMAGE
18-1001821 2945 WINDAMERE DR 2018-10-10 07:59:47.943 BREAKING OR ENTERING
18-1001820 2101 TYLER ST 2018-10-10 07:57:16.263 STALLED VEHICLE
18-1001819 18-11578 155 APPLEGATE DR 2018-10-10 07:55:49.670 MISSING PERSON
18-1001818 2510 PRINCE ST 2018-10-10 07:54:26.740 STALLED VEHICLE
18-1001816 18-11572 2200 WINDSOR PARK DR 2018-10-10 07:52:32.297 BREAKING OR ENTERING
18-1001815 2018-10-10 07:39:14.053 ATTEMPT TO CONTACT
18-1001814 1122 VAN RONKLE ST 2018-10-10 07:35:55.480 SUSPICIOUS PACKAGE
18-1001812 701 1ST AV 2018-10-10 07:33:14.877 DISTURBANCE
18-1001811 18-11571 2955 WINDAMERE DR 2018-10-10 07:17:25.347 BREAKING OR ENTERING
18-1001809 18-11570 1915 RICH SMITH LN 2018-10-10 07:13:06.463 FIRE DEPT ASSIST
18-1001807 2511 COLLEGE AV 2018-10-10 07:11:49.820 ALARM
18-1001806 18-11568 3105 PEBBLE BEACH DR 2018-10-10 06:55:50.337 RUNAWAY
18-1001804 1505 AMELIA DR 2018-10-10 06:26:28.553 ALARM
18-1001803 1025 S AMITY RD 2018-10-10 06:23:42.507 OPEN DOOR/WINDOW/FENCE
18-1001802 18-11567 3130 CLEBURNE CV 2018-10-10 06:20:40.390 BREAKING OR ENTERING
18-1001801 1005 SOUTH GERMAN LN 2018-10-10 05:58:59.950 SUSPICIOUS VEHICLE
18-1001800 1155 PARKWAY ST 2018-10-10 05:53:27.217 BURGLARY
18-1001798 1325 OLD MORRILTON HWY 2018-10-10 04:24:37.660 CHECKING PERSON
18-1001796 2001 SALEM RD 2018-10-10 02:54:20.823 RECKLESS DRIVER
18-1001795 134 HARKRIDER ST 2018-10-10 02:40:27.013 PURSUIT DRILL
18-1001792 2310 ROBINSON AV 2018-10-10 01:37:26.217 CHECKING VEHICLE
18-1001791 1701 DAVE WARD DR 2018-10-10 00:57:53.520 CIVIL MATTER
18-1001790 1205 E SKYLINE DR 2018-10-10 00:52:37.630 ACCIDENT - PROPERTY DAMAGE
18-1001789 4 RANDOLPH PL 2018-10-10 00:45:13.670 PROWLER
18-1001788 302 MILDRED ST 2018-10-10 00:38:10.920 UNKNOWN TROUBLE
18-1001787 18-11566 1775 OLD MORRILTON HWY 2018-10-10 00:28:27.680 TERRORISTIC THREATENING
18-1001786 411 S ASH ST 2018-10-09 23:51:06.447 UNKNOWN TROUBLE
18-1001785 134 HARKRIDER ST 2018-10-09 23:41:13.017 BATTERY REPORT
18-1001784 14 PATTON CIR 2018-10-09 23:38:56.500 REPOSSESSION
18-1001782 155 APPLEGATE DR 2018-10-09 23:18:32.440 MISSING PERSON
18-1001781 134 HARKRIDER ST 2018-10-09 23:14:19.700 ATTEMPT TO CONTACT
18-1001780 245 GREAT FALLS 2018-10-09 23:08:59.353 ALARM
18-1001779 1525 CLIFTON ST 2018-10-09 23:05:19.610 REPOSSESSION
18-1001777 810 MUSEUM RD 2018-10-09 22:43:37.533 CHECKING VEHICLE
18-1001776 134 HARKRIDER ST 2018-10-09 22:31:43.640 DOMESTIC DISTURBANCE
18-1001774 2106 LOOKOUT AV 2018-10-09 22:25:19.473 UNKNOWN TROUBLE
18-1001771 1 CADRON SETTLEMENT PARK RD 2018-10-09 22:18:34.977 CHECKING BUILDING
18-1001770 380 HARKRIDER ST 2018-10-09 22:14:26.343 STALLED VEHICLE
18-1001768 100 FARRIS RD 2018-10-09 22:02:13.933 RECKLESS DRIVER
18-1001766 2018-10-09 21:46:36.790 WEATHER RELATED CALLS-PROBLEMS
18-1001765 18-11565 3900 DAVE WARD DR 2018-10-09 21:38:59.863 THEFT OF PROPERTY
18-1001764 1620 MIDDLE RD 2018-10-09 21:33:39.000 DOMESTIC DISTURBANCE
18-1001763 777 S EAST GERMAN LN 2018-10-09 21:30:10.753 CHECK ON THE WELFARE
18-1001762 1601 HOGAN LN 2018-10-09 21:29:46.403 DISTURBANCE
18-1001758 2225 RAINTREE DR 2018-10-09 20:55:49.543 DOMESTIC DISTURBANCE
18-1001757 1800 WASHINGTON AV 2018-10-09 20:50:04.563 FIGHT
18-1001755 1931 MARTIN ST 2018-10-09 20:43:11.817 THEFT OF PROPERTY
18-1001751 18-11563 1817 COLLEGE AV 2018-10-09 20:22:25.960 ATTEMPT TO CONTACT
18-1001750 2915 DAVE WARD DR 2018-10-09 20:09:00.527 CIVIL MATTER
18-1001749 777 S EAST GERMAN LN 2018-10-09 20:07:17.503 ATTEMPT TO CONTACT
18-1001747 18-11562 508 BRUCE ST 2018-10-09 20:01:33.477 DOMESTIC DISTURBANCE
18-1001746 512 3RD AV 2018-10-09 19:55:57.933 911 HANGUP CALL
18-1001745 611 COURT ST 2018-10-09 19:35:00.813 SUSPICIOUS VEHICLE
18-1001744 18-11561 10 PATTON CIR 2018-10-09 19:27:03.827 BATTERY REPORT
18-1001743 18-11560 475 ROBINS ST 2018-10-09 19:25:24.843 CIVIL STAND BY
18-1001742 2165 HARKRIDER ST 2018-10-09 19:23:53.067 STALLED VEHICLE
18-1001738 18-11558 1201 DONAGHEY AV 2018-10-09 18:15:23.020 ACCIDENT - PROPERTY DAMAGE
18-1001737 400 HARKRIDER ST 2018-10-09 18:09:42.000 CHECK ON THE WELFARE
18-1001734 2015 RICH SMITH LN 2018-10-09 17:56:18.860 ATTEMPT TO CONTACT
18-1001733 1 LOWER RIDGE RD 2018-10-09 17:40:40.610 RECKLESS DRIVER
18-1001731 18-11557 500 SOUTH GERMAN LN 2018-10-09 17:27:28.840 MISDEMEANOR WARRANT SERVICE
18-1001730 400 HARKRIDER ST 2018-10-09 17:24:06.460 CHECK ON THE WELFARE
18-1001729 1105 PRAIRIE ST 2018-10-09 17:16:44.260 INTERFERENCE WITH CUSTODY
18-1001728 18-11556 2500 DAVE WARD DR 2018-10-09 17:11:52.023 ACCIDENT - PROPERTY DAMAGE
18-1001727 1005 E OAK ST 2018-10-09 17:09:13.340 ALARM - BANK
18-1001725 18-11555 3320 OLD MORRILTON HWY 2018-10-09 17:08:29.580 HARASSING COMMUNICATIONS
18-1001724 2302 COLLEGE AV 2018-10-09 17:06:53.080 CIVIL STAND BY
18-1001723 18-11554 230 ASH ST 2018-10-09 17:04:49.323 HARASSMENT
18-1001721 2455 DONAGHEY AV 2018-10-09 17:01:25.663 RECOVERED VEHICLE
18-1001720 1501 WASHINGTON AV 2018-10-09 16:57:10.773 STALLED VEHICLE
18-1001717 540 FACTORY ST 2018-10-09 16:31:32.737 VEHICLE TOW
18-1001716 200 MITCHELL ST 2018-10-09 16:30:37.620 SUPPLEMENT REPORT CALL
18-1001715 18-11553 500 SOUTH GERMAN LN 2018-10-09 16:26:58.457 MISDEMEANOR WARRANT SERVICE
18-1001714 1618 WESTLAKE DR 2018-10-09 16:23:47.730 SUSPICIOUS PERSON
18-1001713 1515 NEW OXFORD RD 2018-10-09 16:06:51.133 TERRORISTIC THREATENING
18-1001712 18-11552 1405 S DONAGHEY AV 2018-10-09 16:04:36.427 ROBBERY
18-1001709 1619 DAVIS ST 2018-10-09 15:56:52.620 THEFT OF PROPERTY
18-1001707 1330 E OAK ST 2018-10-09 15:51:34.877 RECKLESS DRIVER
18-1001706 1000 GUM ST 2018-10-09 15:51:18.293 SUPPLEMENT REPORT CALL
18-1001705 18-11551 1200 E DAVE WARD DR 2018-10-09 15:49:36.737 ACCIDENT - PROPERTY DAMAGE
18-1001704 5300 BAY TOWN DR 2018-10-09 15:48:14.557 ATTEMPT TO CONTACT
18-1001698 350 S DONAGHEY AV 2018-10-09 15:06:11.660 FRAUD
18-1001697 1701 HAIRSTON AV 2018-10-09 15:05:47.277 ROBBERY
18-1001696 380 HARKRIDER ST 2018-10-09 14:51:53.857 SHOPLIFTING
18-1001695 101 OAK ST 2018-10-09 14:47:35.210 CHECK ON THE WELFARE
18-1001694 18-11577 2695 T J DR 2018-10-09 14:31:07.113 MISSING PERSON
18-1001693 1001 MCNUTT RD 2018-10-09 14:29:59.753 TRESPASSING
18-1001692 3100 IRBY DR 2018-10-09 14:25:59.497 DISTURBANCE
18-1001691 824 SALEM RD 2018-10-09 14:18:55.610 SUPPLEMENT REPORT CALL
18-1001690 2415 BROADVIEW AV 2018-10-09 14:14:02.560 TRESPASSING
18-1001689 18-11540 2301 COLLEGE AV 2018-10-09 14:08:17.253 ACCIDENT - HIT AND RUN
18-1001688 18-11550 2208 STOUT ST 2018-10-09 14:07:33.637 ATTEMPT TO CONTACT
18-1001687 1001 FRONT ST 2018-10-09 14:06:44.510 ALARM - HOLD UP or PANIC
18-1001685 1900 HOGAN LN 2018-10-09 13:54:03.397 SUPPLEMENT REPORT CALL
18-1001684 2101 TYLER ST 2018-10-09 13:48:29.447 STALLED VEHICLE
18-1001683 1955 KEATHLEY DR 2018-10-09 13:40:32.957 ATTEMPT TO CONTACT
18-1001682 18-11541 1001 COUNTRY CLUB RD 2018-10-09 13:40:27.543 ACCIDENT - PROPERTY DAMAGE
18-1001681 18-11539 219 ASH ST 2018-10-09 13:39:59.900 DOMESTIC DISTURBANCE
18-1001679 219 ASH ST 2018-10-09 13:38:19.870 CHECK ON THE WELFARE
18-1001678 18-11537 2500 COLLEGE AV 2018-10-09 13:31:28.543 ACCIDENT - PROPERTY DAMAGE
18-1001677 1050 ELLIS AV 2018-10-09 13:29:01.810 THEFT OF PROPERTY
18-1001676 1360 TORREYSON ST 2018-10-09 13:28:48.130 ANIMAL BITE
18-1001675 2018-10-09 13:22:19.343 ATTEMPT TO CONTACT
18-1001673 18-11542 1430 BLUSTERY WAY 2018-10-09 13:18:36.107 DOMESTIC DISTURBANCE
18-1001672 18-11535 504 E OAK ST 2018-10-09 13:16:42.070 ACCIDENT - PROPERTY DAMAGE
18-1001670 18-11534 1025 S AMITY RD 2018-10-09 13:03:07.883 ACCIDENT - PROPERTY DAMAGE
18-1001667 2302 COLLEGE AV 2018-10-09 12:51:58.063 SUSPICIOUS PERSON
18-1001662 2501 DAVE WARD DR 2018-10-09 12:31:24.703 ALARM - HOLD UP or PANIC
18-1001661 18-11536 1615 SWEETSPIRE DR 2018-10-09 12:25:43.123 THEFT OF PROPERTY
18-1001659 1001 FRONT ST 2018-10-09 12:16:21.677 ALARM - HOLD UP or PANIC
18-1001658 2015 RICH SMITH LN 2018-10-09 12:13:03.100 FIRE DEPT ASSIST
18-1001655 18-11531 101 OAK ST 2018-10-09 11:59:43.847 ACCIDENT - PRIVATE PROPERTY
18-1001654 127 I40EB 2018-10-09 11:51:54.907 CHECK ON THE WELFARE
18-1001652 1710 S AMITY RD 2018-10-09 11:44:51.537 ALARM
18-1001651 1000 E SIEBENMORGEN RD 2018-10-09 11:31:03.373 AGENCY ASSIST
18-1001649 1040 HOLIDAY DR 2018-10-09 11:25:25.333 ILLEGAL DUMPING
18-1001648 401 2ND ST 2018-10-09 11:23:08.130 SUPPLEMENT REPORT CALL
18-1001647 18-11526 388 MILL POND RD 2018-10-09 11:16:30.673 THEFT OF PROPERTY
18-1001646 900 WINEBERRY RD 2018-10-09 11:15:19.753 PARKING VIOLATION
18-1001645 923 FRONT ST 2018-10-09 11:14:03.393 ALARM
18-1001637 3501 COLLEGE AV 2018-10-09 10:55:17.190 CIVIL MATTER
18-1001634 650 ELSINGER BLVD 2018-10-09 10:30:45.850 SUSPICIOUS PERSON
18-1001631 7 EVERGREEN DR 2018-10-09 09:53:12.430 ALARM
18-1001630 18-11523 132 LOWER RIDGE RD 2018-10-09 09:52:43.820 ACCIDENT - PROPERTY DAMAGE
18-1001628 18-11521 520 2ND ST 2018-10-09 09:44:55.083 ACCIDENT - PROPERTY DAMAGE
18-1001627 1701 HAIRSTON AV 2018-10-09 09:33:26.513 ROBBERY
18-1001623 18-11520 2699 DONAGHEY AV 2018-10-09 09:09:30.850 ACCIDENT - PROPERTY DAMAGE
18-1001620 18-11519 1005 E OAK ST 2018-10-09 08:52:34.957 ACCIDENT - PRIVATE PROPERTY
18-1001619 1075 HOGAN LN 2018-10-09 08:49:53.917 SUSPICIOUS PACKAGE
18-1001618 118 HARKRIDER ST 2018-10-09 08:35:30.123 FOUND PROPERTY
18-1001617 18-11518 867 FENDLEY DR 2018-10-09 08:33:55.493 BREAKING OR ENTERING
18-1001616 710 S HARKRIDER DR 2018-10-09 08:32:01.910 ATTEMPT TO CONTACT
18-1001614 1555 EXCHANGE AV 2018-10-09 08:22:57.760 THEFT OF PROPERTY
18-1001612 235 GRAND FALLS 2018-10-09 08:18:54.853 CHECK ON THE WELFARE
18-1001609 850 OAK ST 2018-10-09 08:04:57.207 SUPPLEMENT REPORT CALL
18-1001608 1105 PRAIRIE ST 2018-10-09 08:01:58.210 DISTURBANCE
18-1001606 18-11516 2100 SALEM RD 2018-10-09 07:58:39.730 ACCIDENT - PROPERTY DAMAGE
18-1001603 18-11515 1051 HOGAN LN 2018-10-09 07:15:23.540 BURGLARY
18-1001601 2835 CLOVER LN 2018-10-09 06:00:08.620 HARASSMENT
18-1001600 2799 SALEM RD 2018-10-09 05:52:30.603 STALLED VEHICLE
18-1001599 13 EVERGREEN DR 2018-10-09 05:38:08.913 SUSPICIOUS VEHICLE
18-1001598 2670 DONAGHEY AV 2018-10-09 05:37:05.050 ALARM
18-1001597 525 SKYLINE DR 2018-10-09 04:54:08.363 SUSPICIOUS VEHICLE
18-1001595 2430 SANDERS ST 2018-10-09 04:17:24.070 CHECKING VEHICLE
18-1001594 2501 DAVE WARD DR 2018-10-09 04:07:02.517 ALARM - HOLD UP or PANIC
18-1001593 1155 CUMULUS DR 2018-10-09 03:55:30.993 DOMESTIC DISTURBANCE
18-1001591 18-11512 2116 LOUVENIA AV 2018-10-09 03:38:54.647 DOMESTIC DISTURBANCE
18-1001590 2100 DAVE WARD DR 2018-10-09 02:45:15.330 STALLED VEHICLE
18-1001589 530 S DONAGHEY AV 2018-10-09 02:39:20.383 PARKING VIOLATION
18-1001588 530 S DONAGHEY AV 2018-10-09 02:30:57.840 PARKING VIOLATION
18-1001587 1699 MIDDLE RD 2018-10-09 02:20:47.613 SUSPICIOUS VEHICLE
18-1001585 600 5TH AV 2018-10-09 01:52:13.520 CHECKING PERSON
18-1001584 810 CRAIN DR 2018-10-09 01:34:23.557 LOG VEHICLE
18-1001583 422 MONROE ST 2018-10-09 01:29:54.127 SUSPICIOUS PERSON
18-1001582 810 CRAIN DR 2018-10-09 01:28:40.930 CHECKING VEHICLE
18-1001580 1423 ROBINS ST 2018-10-09 01:08:36.073 CHECKING PERSON
18-1001579 1700 LONGFELLOW DR 2018-10-09 00:57:11.417 CHECKING PERSON
18-1001578 2100 ROSEMARY DR 2018-10-09 00:48:38.407 CHECKING PERSON
18-1001577 18-11510 1200 DAVE WARD DR 2018-10-09 00:46:20.050 CHECKING PERSON
18-1001576 701 1ST AV 2018-10-09 00:45:51.313 BURGLARY
18-1001575 1701 SALEM RD 2018-10-09 00:27:49.167 CHECKING PERSON
18-1001574 18-11511 2067 KEATHLEY DR 2018-10-09 00:25:33.790 OPEN DOOR/WINDOW/FENCE
18-1001573 1135 SKYLINE DR 2018-10-08 23:31:18.483 CHECKING PERSON
18-1001572 2500 TYLER ST 2018-10-08 23:22:12.137 CHECKING PERSON
18-1001569 2214 LOOKOUT AV 2018-10-08 23:03:24.593 BURGLARY
18-1001568 1900 TYLER ST 2018-10-08 22:59:38.627 CHECKING PERSON
18-1001566 2125 HARKRIDER ST 2018-10-08 22:38:21.010 CHECKING PERSON
18-1001565 1 CADRON SETTLEMENT PARK RD 2018-10-08 22:31:41.240 CHECKING BUILDING
18-1001563 1235 BERMUDA ST 2018-10-08 22:17:09.587 BURGLARY
18-1001562 1105 PRAIRIE ST 2018-10-08 22:14:22.070 ATTEMPT TO CONTACT
18-1001561 401 2ND ST 2018-10-08 22:04:36.070 CIVIL MATTER
18-1001560 100 BROOKSIDE DR 2018-10-08 22:02:21.627 CIVIL MATTER
18-1001559 18-11509 600 SKYLINE DR 2018-10-08 21:48:51.547 ACCIDENT - PROPERTY DAMAGE
18-1001558 2220 KRYSTAL KREEK DR 2018-10-08 21:42:15.397 REPOSSESSION
18-1001557 1220 E OAK ST 2018-10-08 21:33:00.440 ACCIDENT - PERSONAL INJURY
18-1001555 1601 HOGAN LN 2018-10-08 21:20:56.703 REPOSSESSION
18-1001553 201 2ND ST 2018-10-08 21:08:58.960 SUSPICIOUS PERSON
18-1001551 2400 SANDERS ST 2018-10-08 20:59:57.150 STALLED VEHICLE
18-1001549 404 WATKINS ST 2018-10-08 20:48:42.197 SUPPLEMENT REPORT CALL
18-1001546 2730 DAVE WARD DR 2018-10-08 20:02:08.250 DOMESTIC DISTURBANCE
18-1001544 3320 OLD MORRILTON HWY 2018-10-08 19:54:12.883 TERRORISTIC THREATENING
18-1001540 300 S DONAGHEY AV 2018-10-08 19:23:49.093 ATTEMPT TO CONTACT
18-1001537 18-11506 100 BROOKSIDE DR 2018-10-08 19:09:51.553 DISTURBANCE
18-1001536 3010 PEBBLE BEACH DR 2018-10-08 19:06:10.423 DOMESTIC DISTURBANCE
18-1001535 1405 S DONAGHEY AV 2018-10-08 18:58:46.600 ROBBERY
18-1001533 1090 SKYLINE DR 2018-10-08 18:55:45.780 CIVIL MATTER
18-1001532 1535 HATHAWAY DR 2018-10-08 18:53:18.560 REPOSSESSION
18-1001531 955 SOUTH GERMAN LN 2018-10-08 18:51:22.730 TRESPASSING
18-1001529 18-11505 401 2ND ST 2018-10-08 18:22:56.797 BATTERY REPORT
18-1001528 18-11504 1695 RACHEL DR 2018-10-08 18:22:45.610 TERRORISTIC THREATENING
18-1001527 530 S DONAGHEY AV 2018-10-08 18:19:55.040 ALARM
18-1001526 645 MILAM DR 2018-10-08 18:06:54.537 DOMESTIC DISTURBANCE
18-1001525 18-11500 500 SOUTH GERMAN LN 2018-10-08 18:03:20.393 MISDEMEANOR WARRANT SERVICE
18-1001523 18-11502 955 SOUTH GERMAN LN 2018-10-08 17:47:29.113 TRESPASSING
18-1001521 500 SOUTH GERMAN LN 2018-10-08 17:42:26.723 MISDEMEANOR WARRANT SERVICE
18-1001520 6 SHADY LANE DR 2018-10-08 17:40:20.487 SUSPICIOUS VEHICLE
18-1001519 18-11501 1918 ROBINSON AV 2018-10-08 17:36:56.797 FRAUD
18-1001518 18-11499 2002 HOGAN LN 2018-10-08 17:35:57.640 ACCIDENT - PROPERTY DAMAGE
18-1001517 1960 ROBINS ST 2018-10-08 17:31:57.273 SUPPLEMENT REPORT CALL
18-1001516 1001 MCNUTT RD 2018-10-08 17:21:40.413 CIVIL MATTER
18-1001515 2302 COLLEGE AV 2018-10-08 17:19:11.980 DOMESTIC DISTURBANCE
18-1001514 18-11498 801 ELSINGER BLVD 2018-10-08 17:12:16.270 THEFT OF PROPERTY
18-1001512 2885 COLLINS DR 2018-10-08 17:09:35.150 SUSPICIOUS VEHICLE
18-1001511 2840 DAVE WARD DR 2018-10-08 17:02:51.467 CIVIL MATTER
18-1001510 2625 DONAGHEY AV 2018-10-08 17:01:09.940 ACCIDENT - PRIVATE PROPERTY
18-1001509 18-11497 1553 WASHINGTON AV 2018-10-08 16:58:06.983 ACCIDENT - HIT AND RUN
18-1001508 18-11496 867 FENDLEY DR 2018-10-08 16:48:27.173 BURGLARY
18-1001507 2200 MEADOWLAKE RD 2018-10-08 16:47:03.933 SERVING SUBPOENA
18-1001505 18-11495 314 ELIZABETH ST 2018-10-08 16:35:46.607 BATTERY REPORT
18-1001503 217 S CENTER ST 2018-10-08 16:31:56.583 ATTEMPT TO CONTACT
18-1001501 18-11494 1501 SALEM RD 2018-10-08 16:24:39.953 ACCIDENT - PERSONAL INJURY
18-1001500 120 S HARKRIDER DR 2018-10-08 16:19:40.260 CHECKING PERSON
18-1001499 2106 LOOKOUT AV 2018-10-08 15:58:27.090 ATTEMPT TO CONTACT
18-1001498 555 COUNTRY CLUB RD 2018-10-08 15:54:50.887 SUSPICIOUS PERSON
18-1001497 1405 S DONAGHEY AV 2018-10-08 15:51:23.483 CHECKING PERSON
18-1001495 18-11493 1400 JOYNER DR 2018-10-08 15:40:15.550 BATTERY REPORT
18-1001493 4535 OREGON TRL 2018-10-08 15:34:21.740 THEFT OF VEHICLE
18-1001492 503 MONROE ST 2018-10-08 15:32:03.257 FOUND PROPERTY
18-1001491 1400 JOYNER DR 2018-10-08 15:30:43.570 TRESPASSING
18-1001490 300 S DONAGHEY AV 2018-10-08 15:28:37.600 SUSPICIOUS ACTIVITY
18-1001489 2106 LOOKOUT AV 2018-10-08 15:26:17.420 TERRORISTIC THREATENING
18-1001486 1430 BLUSTERY WAY 2018-10-08 15:08:25.630 CIVIL MATTER
18-1001484 2225 PRINCE ST 2018-10-08 14:59:02.137 VEHICLE TOW
18-1001483 18-11492 2260 SANDERS ST 2018-10-08 14:55:28.883 ACCIDENT - HIT AND RUN
18-1001480 1405 S DONAGHEY AV 2018-10-08 14:45:14.223 DOMESTIC DISTURBANCE
18-1001478 20 KINLEY DR 2018-10-08 14:08:49.103 SUSPICIOUS PERSON
18-1001477 475 ROBINS ST 2018-10-08 13:51:45.160 ATTEMPT TO CONTACT
18-1001476 18-11490 713 1ST ST 2018-10-08 13:50:59.403 BREAKING OR ENTERING
18-1001474 6135 ETHERIDGE LN 2018-10-08 13:43:19.217 ATTEMPT TO CONTACT
18-1001472 18-11489 2270 MEADOWLAKE RD 2018-10-08 13:38:06.420 TERRORISTIC THREATENING
18-1001470 710 S HARKRIDER DR 2018-10-08 13:28:29.607 ATTEMPT TO CONTACT
18-1001466 1710 S AMITY RD 2018-10-08 13:09:42.767 ALARM
18-1001464 205 OAK ST 2018-10-08 13:05:24.180 THEFT OF PROPERTY
18-1001463 1275 NORTH ST 2018-10-08 13:03:55.570 TRAFFIC PROBLEM-CONTROL
18-1001462 702 S DONAGHEY AV 2018-10-08 12:59:05.800 CHECKING PERSON
18-1001461 18-11488 125 I40WB 2018-10-08 12:51:26.330 ACCIDENT - PROPERTY DAMAGE
18-1001460 18-11487 1941 CALDWELL ST 2018-10-08 12:46:19.757 BURGLARY
18-1001459 18-11486 1300 GRANDVIEW HEIGHTS DR 2018-10-08 12:42:52.587 PROPERTY DAMAGE
18-1001457 1155 SKYLINE DR 2018-10-08 12:26:53.477 SUPPLEMENT REPORT CALL
18-1001455 24 BLAKE LN 2018-10-08 12:18:52.323 SUSPICIOUS VEHICLE
18-1001454 18-11485 416 S CENTER ST 2018-10-08 12:17:28.830 SUSPICIOUS VEHICLE
18-1001453 1805 PECAN CREEK DR 2018-10-08 12:15:05.357 ALARM
18-1001449 475 ROBINS ST 2018-10-08 11:37:40.970 FOUND PROPERTY
18-1001447 18-11484 2350 SANDERS ST 2018-10-08 11:33:26.330 DISTURBANCE
18-1001443 18-11483 1010 APPLEWOOD DR 2018-10-08 11:10:37.797 CHECKING VEHICLE
18-1001442 18-11482 32 HUMMINGBIRD LN 2018-10-08 11:01:25.600 THEFT OF IDENTITY
18-1001440 715 INGRAM ST 2018-10-08 10:58:00.303 THEFT OF SERVICES
18-1001438 731 DONAGHEY AV 2018-10-08 10:43:28.023 CIVIL MATTER
18-1001434 18-11480 1120 EAST GERMAN LN 2018-10-08 10:18:55.827 FORGERY
18-1001433 18-11479 6 IRONWOOD DR 2018-10-08 10:17:10.883 BREAKING OR ENTERING
18-1001428 32 HUMMINGBIRD LN 2018-10-08 10:07:09.937 THEFT OF IDENTITY
18-1001424 1600 CENTENNIAL CLUB DR 2018-10-08 09:30:27.313 SUPPLEMENT REPORT CALL
18-1001422 3101 DAVE WARD DR 2018-10-08 09:05:36.100 FOUND PROPERTY
18-1001415 6 OAKWOOD CIR 2018-10-08 08:33:10.300 SERVING SUBPOENA
18-1001414 18-11476 1455 ARDEN LN 2018-10-08 08:30:09.850 ACCIDENT - PROPERTY DAMAGE
18-1001413 2218 LOOKOUT AV 2018-10-08 08:26:45.240 SERVING SUBPOENA
18-1001412 2109 HAIRSTON AV 2018-10-08 08:19:57.487 SERVING SUBPOENA
18-1001410 18-11475 2051 HARKRIDER ST 2018-10-08 08:09:41.593 ACCIDENT - PROPERTY DAMAGE
18-1001409 605 1ST AV 2018-10-08 07:59:15.593 SERVING SUBPOENA
18-1001407 1600 WESTLAKE DR 2018-10-08 07:49:06.953 SERVING SUBPOENA
18-1001406 3430 IRBY DR 2018-10-08 07:38:24.107 SERVING SUBPOENA
18-1001405 1601 HOGAN LN 2018-10-08 07:30:47.180 SERVING SUBPOENA
18-1001404 18-11474 2730 YORK LN 2018-10-08 07:28:45.140 THEFT OF PROPERTY
18-1001401 18-11473 228 LOWER RIDGE RD 2018-10-08 07:04:08.730 ACCIDENT - PROPERTY DAMAGE
18-1001400 2405 WASHINGTON AV 2018-10-08 06:57:37.043 TRESPASSING
18-1001398 3225 MAJESTIC CIR 2018-10-08 04:27:40.620 ALARM
18-1001397 2018-10-08 03:53:17.957 RECOVERED VEHICLE
18-1001396 1055 DAVE WARD DR 2018-10-08 03:19:50.490 AGENCY ASSIST
18-1001395 2104 HARKRIDER ST 2018-10-08 03:06:39.377 CHECKING PERSON
18-1001394 241 MILL POND RD 2018-10-08 03:02:38.790 CHECK ON THE WELFARE
18-1001392 350 GRANDVIEW HEIGHTS DR 2018-10-08 02:11:22.297 CHECKING VEHICLE
18-1001391 875 SKYLINE DR 2018-10-08 01:30:32.707 CHECKING VEHICLE
18-1001390 2100 ARKANSAS AV 2018-10-08 01:01:39.550 CHECKING PERSON
18-1001389 1712 JENNIFER CIR 2018-10-08 00:44:52.020 CIVIL MATTER
18-1001388 3900 KENNEDY LN 2018-10-08 00:34:24.987 TRESPASSING
18-1001387 1712 JENNIFER CIR 2018-10-08 00:26:40.637 CIVIL STAND BY
18-1001386 100 BROOKSIDE DR 2018-10-08 00:17:44.867 LOUD NOISE-MUSIC
18-1001385 2050 DAVE WARD DR 2018-10-08 00:10:29.450 CHECKING PERSON
18-1001383 2890 DAVE WARD DR 2018-10-07 23:39:52.227 RECKLESS DRIVER
18-1001382 18-11472 1095 SKYLINE DR 2018-10-07 23:37:33.353 TRESPASSING
18-1001380 1030 SKYLINE DR 2018-10-07 22:36:00.687 SHOPLIFTING
18-1001378 1095 SKYLINE DR 2018-10-07 21:56:07.053 TRESPASSING
18-1001377 1030 SKYLINE DR 2018-10-07 21:47:41.767 SHOPLIFTING
18-1001376 402 HARKRIDER ST 2018-10-07 21:47:01.503 SUPPLEMENT REPORT CALL
18-1001375 1099 SIEBENMORGEN RD 2018-10-07 21:42:29.937 RECKLESS DRIVER
18-1001374 79 RICHLAND HILLS DR 2018-10-07 21:38:40.850 INTOXICATED DRIVER
18-1001372 18-11471 1132 FRONT ST 2018-10-07 21:24:02.657 CHECK ON THE WELFARE
18-1001369 18-11470 210 MERTON DR 2018-10-07 21:06:12.287 DOMESTIC DISTURBANCE
18-1001368 111 LOWER RIDGE RD 2018-10-07 21:05:43.160 DISTURBANCE
18-1001366 205 OAK ST 2018-10-07 20:35:29.573 ALARM
18-1001365 1703 JENNIFER CIR 2018-10-07 20:14:28.100 ATTEMPT TO CONTACT
18-1001363 902 DONAGHEY AV 2018-10-07 20:02:59.280 STALLED VEHICLE
18-1001362 18-11469 3430 IRBY DR 2018-10-07 19:56:44.847 ACCIDENT - PRIVATE PROPERTY
18-1001361 1703 JENNIFER CIR 2018-10-07 19:53:09.487 DOMESTIC DISTURBANCE
18-1001359 233 MILL POND RD 2018-10-07 19:30:59.967 TRESPASSING
18-1001358 18-11468 6 FERNWOOD DR 2018-10-07 19:17:38.653 TERRORISTIC THREATENING
18-1001357 1105 PRAIRIE ST 2018-10-07 19:11:47.370 SUSPICIOUS VEHICLE
18-1001356 18-11467 600 SKYLINE DR 2018-10-07 19:08:30.123 ACCIDENT - PROPERTY DAMAGE
18-1001355 220 E OAK ST 2018-10-07 19:01:30.747 DOMESTIC DISTURBANCE
18-1001353 611 1ST ST 2018-10-07 18:42:38.120 LOUD NOISE-MUSIC
18-1001352 1259 HAMILTON ST 2018-10-07 18:26:32.863 SUSPICIOUS VEHICLE
18-1001351 18-11466 1025 E SIEBENMORGEN RD 2018-10-07 18:21:56.570 ARMED SUBJECT
18-1001350 2560 DONAGHEY AV 2018-10-07 18:07:59.467 ATTEMPT TO CONTACT
18-1001349 1510 HATHAWAY DR 2018-10-07 18:06:27.007 TRESPASSING
18-1001348 502 FRONT ST 2018-10-07 18:01:29.950 ALARM
18-1001347 500 INGRAM ST 2018-10-07 17:41:01.987 911 HANGUP CALL
18-1001345 1499 MANOR ST 2018-10-07 17:25:36.310 ATTEMPT TO CONTACT
18-1001344 18-11465 3700 DAVE WARD DR 2018-10-07 17:15:20.963 ACCIDENT - PROPERTY DAMAGE
18-1001342 1499 MANOR ST 2018-10-07 16:44:55.830 CIVIL STAND BY
18-1001340 18-11463 1155 SKYLINE DR 2018-10-07 16:26:11.013 SHOPLIFTING
18-1001339 1912 HOGAN LN 2018-10-07 15:47:29.160 BURGLARY
18-1001338 5253 SHAKESPEARE DR 2018-10-07 15:42:55.157 PURSUIT DRILL
18-1001337 217 CENTER ST 2018-10-07 15:14:52.967 ATTEMPT TO CONTACT
18-1001335 18-11462 1105 PRAIRIE ST 2018-10-07 14:32:19.963 UNAUTHORIZED USE OF MOTOR VEHICLE
18-1001334 620 ELSINGER BLVD 2018-10-07 14:24:06.097 LOST PROPERTY
18-1001333 1120 EAST GERMAN LN 2018-10-07 14:23:09.657 ATTEMPT TO CONTACT
18-1001332 1425 ROBINS ST 2018-10-07 14:20:21.360 ATTEMPT TO CONTACT
18-1001331 104 COUNTRY CLUB RD 2018-10-07 14:03:39.803 DOMESTIC DISTURBANCE
18-1001330 475 ROBINS ST 2018-10-07 13:58:36.913 ATTEMPT TO CONTACT
18-1001329 18-11461 1962 BRUCE ST 2018-10-07 13:53:47.127 ROBBERY
18-1001328 325 S BARIDON ST 2018-10-07 13:46:35.407 ATTEMPT TO CONTACT
18-1001325 18-11460 900 SALEM RD 2018-10-07 12:50:24.820 ABANDONED VEHICLE
18-1001324 1655 HIGHPOINT DR 2018-10-07 12:19:47.470 SHOTS FIRED
18-1001323 100 SKYLINE DR 2018-10-07 12:18:43.260 RECKLESS DRIVER
18-1001319 645 MILAM DR 2018-10-07 12:05:06.127 CIVIL MATTER
18-1001318 18-11459 3100 STERMER RD 2018-10-07 12:04:19.577 DOMESTIC DISTURBANCE
18-1001317 380 HARKRIDER ST 2018-10-07 12:02:06.587 ENDANGERING WELFARE OF MINOR
18-1001315 1425 ROBINS ST 2018-10-07 11:40:56.987 SHOTS FIRED
18-1001314 1229 CLIFTON ST 2018-10-07 11:36:47.650 ATTEMPT TO CONTACT
18-1001313 1155 SKYLINE DR 2018-10-07 11:31:06.413 CHECKING VEHICLE
18-1001312 1399 PARKWAY ST 2018-10-07 11:23:30.830 CHECKING PERSON
18-1001309 705 MUSEUM RD 2018-10-07 10:40:37.420 FOUND PROPERTY
18-1001308 18-11457 1325 OLD MORRILTON HWY 2018-10-07 10:18:53.487 THEFT OF PROPERTY
18-1001306 1800 HUTTO ST 2018-10-07 09:51:32.477 CHECKING PERSON
18-1001305 1623 WESTLAKE DR 2018-10-07 09:45:36.047 CHECK ON THE WELFARE
18-1001302 1810 PEARCE ST 2018-10-07 09:24:17.103 CHECK ON THE WELFARE
18-1001301 1915 RICH SMITH LN 2018-10-07 09:09:07.960 STALLED VEHICLE
18-1001300 18-11456 325 S BARIDON ST 2018-10-07 09:01:05.277 ATTEMPT TO CONTACT
18-1001299 475 ROBINS ST 2018-10-07 08:55:43.370 THEFT OF VEHICLE
18-1001295 1425 E OAK ST 2018-10-07 07:47:58.890 CRIMINAL MISCHIEF
18-1001294 3035 WESTOVER DR 2018-10-07 06:26:35.730 ALARM
18-1001293 450 SKYLINE DR 2018-10-07 05:27:26.923 CHECK ON THE WELFARE
18-1001291 530 S DONAGHEY AV 2018-10-07 03:45:27.410 CHECK ON THE WELFARE
18-1001288 835 S DONAGHEY AV 2018-10-07 03:24:38.547 VEHICLE TOW
18-1001287 835 S DONAGHEY AV 2018-10-07 03:23:08.347 VEHICLE TOW
18-1001286 835 S DONAGHEY AV 2018-10-07 03:05:20.380 VEHICLE TOW
18-1001285 18-11455 2235 DAVE WARD DR 2018-10-07 02:50:53.230 ALARM
18-1001283 800 WALNUT ST 2018-10-07 02:22:28.547 CHECKING PERSON
18-1001282 3085 DAVE WARD DR 2018-10-07 02:13:51.950 LOUD NOISE-MUSIC
18-1001281 2180 LANDOVER TRL 2018-10-07 02:10:25.810 PROWLER
18-1001279 835 S DONAGHEY AV 2018-10-07 01:48:50.830 VEHICLE TOW
18-1001278 835 S DONAGHEY AV 2018-10-07 01:46:59.023 VEHICLE TOW
18-1001277 835 S DONAGHEY AV 2018-10-07 01:45:25.920 VEHICLE TOW
18-1001276 2600 DAVE WARD DR 2018-10-07 01:29:26.173 RECKLESS DRIVER
18-1001274 1090 SKYLINE DR 2018-10-07 00:55:30.673 THEFT OF SERVICES
18-1001273 615 FARRIS RD 2018-10-07 00:46:22.027 LOUD NOISE-MUSIC
18-1001272 999 FARRIS RD 2018-10-07 00:39:21.337 RECKLESS DRIVER
18-1001271 1200 OLD MORRILTON HWY 2018-10-07 00:18:04.483 SUSPICIOUS PERSON
18-1001269 2715 PRINCE ST 2018-10-06 23:47:53.483 REPOSSESSION
18-1001268 1620 WESTLAKE DR 2018-10-06 23:43:41.590 LOUD NOISE-MUSIC
18-1001266 18-11453 2425 SANDERS ST 2018-10-06 23:41:39.130 ACCIDENT - PROPERTY DAMAGE
18-1001265 101 HARKRIDER ST 2018-10-06 23:39:31.397 CHECKING PERSON
18-1001260 900 SOUTH GERMAN LN 2018-10-06 23:09:50.020 FIGHT
18-1001259 2640 PRINCE ST 2018-10-06 23:08:56.370 CHECKING PERSON
18-1001256 475 ROBINS ST 2018-10-06 23:02:20.050 LOUD NOISE-MUSIC
18-1001251 32 BRIER SPRINGS DR 2018-10-06 21:58:15.470 ATTEMPT TO CONTACT
18-1001250 2125 DAVE WARD DR 2018-10-06 21:50:14.847 INTOXICATED DRIVER
18-1001248 18-11449 500 SOUTH GERMAN LN 2018-10-06 21:41:42.430 MISDEMEANOR WARRANT SERVICE
18-1001247 475 ROBINS ST 2018-10-06 21:37:15.323 LOUD NOISE-MUSIC
18-1001245 245 OAK ST 2018-10-06 21:31:08.237 ALARM
18-1001241 401 2ND ST 2018-10-06 20:42:15.950 ARMED SUBJECT
18-1001239 18-11448 1090 SKYLINE DR 2018-10-06 20:34:28.150 INTOXICATED PERSON
18-1001238 18-11447 1632 DONAGHEY AV 2018-10-06 20:26:11.177 HARASSMENT
18-1001236 18-11446 1000 GUM ST 2018-10-06 20:00:55.737 ACCIDENT - PROPERTY DAMAGE
18-1001235 18-11445 1038 CLIFTON ST 2018-10-06 19:51:11.170 BREAKING OR ENTERING
18-1001234 18-11444 1120 EAST GERMAN LN 2018-10-06 19:43:33.417 ARMED SUBJECT
18-1001233 2302 COLLEGE AV 2018-10-06 19:36:00.873 ARMED SUBJECT
18-1001232 1099 SIEBENMORGEN RD 2018-10-06 19:31:52.037 TRAFFIC PROBLEM-CONTROL
18-1001231 18-11442 2050 DAVE WARD DR 2018-10-06 19:27:00.750 ACCIDENT - PROPERTY DAMAGE
18-1001230 3900 DAVE WARD DR 2018-10-06 19:19:20.657 INTOXICATED DRIVER
18-1001229 2100 ROBINSON AV 2018-10-06 19:05:56.113 CIVIL MATTER
18-1001228 480 WHITNEY WOODS RD 2018-10-06 18:54:37.977 ALARM
18-1001227 18-11443 1155 SKYLINE DR 2018-10-06 18:46:59.333 ACCIDENT - PROPERTY DAMAGE
18-1001226 215 SKYLINE DR 2018-10-06 18:44:00.150 LOST CHILD-FOUND CHILD
18-1001223 18-11441 402 HARKRIDER ST 2018-10-06 18:32:46.990 ACCIDENT - PROPERTY DAMAGE
18-1001219 18-11440 3320 OLD MORRILTON HWY 2018-10-06 18:12:55.050 HARASSING COMMUNICATIONS
18-1001218 1240 OLD MILITARY RD 2018-10-06 18:08:19.457 RECKLESS DRIVER
18-1001217 2608 COLLEGE AV 2018-10-06 17:58:05.750 CHECK ON THE WELFARE
18-1001216 18-11439 511 FARRIS RD 2018-10-06 17:45:51.500 THEFT OF PROPERTY
18-1001215 18-11437 1101 OLD MORRILTON HWY 2018-10-06 17:15:20.627 ACCIDENT - PROPERTY DAMAGE
18-1001213 260 E SKYLINE DR 2018-10-06 16:45:29.360 ABANDONED VEHICLE
18-1001212 18-11438 2100 CHARLIE DAYER DR 2018-10-06 16:39:17.030 STALLED VEHICLE
18-1001209 1155 SKYLINE DR 2018-10-06 16:05:20.063 ATTEMPT TO CONTACT
18-1001208 2302 COLLEGE AV 2018-10-06 15:50:32.903 ATTEMPT TO CONTACT
18-1001207 18-11433 2260 SANDERS ST 2018-10-06 15:46:43.957 CHECKING VEHICLE
18-1001206 18-11436 101 OAK ST 2018-10-06 15:46:26.160 ACCIDENT - PRIVATE PROPERTY
18-1001205 1604 CALDWELL ST 2018-10-06 15:38:09.893 ALARM
18-1001204 18-11435 1600 CENTENNIAL CLUB DR 2018-10-06 15:33:56.780 DOMESTIC DISTURBANCE
18-1001203 1500 WINTERBROOK DR 2018-10-06 15:30:49.597 ALARM
18-1001202 18-11432 1735 ARDEN LN 2018-10-06 15:27:42.987 HARASSING COMMUNICATIONS
18-1001201 400 CENTRAL LANDING BLVD 2018-10-06 15:22:24.120 DOMESTIC DISTURBANCE
18-1001200 2275 MOIX BLVD 2018-10-06 15:09:32.400 VEHICLE TOW
18-1001199 100 BROOKSIDE DR 2018-10-06 15:07:18.817 INTOXICATED PERSON
18-1001198 165 NIAGRA FALLS 2018-10-06 15:01:46.753 ALARM - HOLD UP or PANIC
18-1001195 18-11429 2302 COLLEGE AV 2018-10-06 14:35:00.893 CIVIL STAND BY
18-1001194 101 OAK ST 2018-10-06 14:30:05.677 TRESPASSING
18-1001193 18-11431 300 S DONAGHEY AV 2018-10-06 14:27:51.953 HARASSING COMMUNICATIONS
18-1001192 1435 GARDENIA 2018-10-06 14:26:41.347 ALARM
18-1001191 2310 ROBINSON AV 2018-10-06 14:12:41.000 PARKING VIOLATION
18-1001190 3320 OLD MORRILTON HWY 2018-10-06 14:09:13.630 HARASSING COMMUNICATIONS
18-1001185 1601 HOGAN LN 2018-10-06 13:34:16.290 CHECK ON THE WELFARE
18-1001184 1040 S AMITY RD 2018-10-06 13:25:23.017 SUPPLEMENT REPORT CALL
18-1001183 3430 IRBY DR 2018-10-06 13:11:52.777 AGENCY ASSIST
18-1001182 2302 COLLEGE AV 2018-10-06 13:03:06.383 SUSPICIOUS ACTIVITY
18-1001180 18-11427 450 E DAVE WARD DR 2018-10-06 12:58:47.093 ACCIDENT - PROPERTY DAMAGE
18-1001179 475 ROBINS ST 2018-10-06 12:57:35.507 CHECK ON THE WELFARE
18-1001178 18-11426 545 E DAVE WARD DR 2018-10-06 12:46:59.397 ACCIDENT - PERSONAL INJURY
18-1001177 2799 SALEM RD 2018-10-06 12:23:18.087 ATTEMPT TO CONTACT
18-1001176 870 ENTERPRISE AV 2018-10-06 12:22:32.360 ALARM
18-1001175 2475 WASHINGTON AV 2018-10-06 12:20:08.263 ALARM
18-1001174 1155 SKYLINE DR 2018-10-06 11:48:41.417 ABANDONED VEHICLE
18-1001172 2499 SANDERS ST 2018-10-06 11:45:53.513 ACCIDENT - PROPERTY DAMAGE
18-1001171 18-11425 2100 CALDWELL ST 2018-10-06 11:38:53.213 TRAFFIC PROBLEM-CONTROL
18-1001169 1127 HARKRIDER ST 2018-10-06 11:23:46.693 CIVIL MATTER
18-1001168 906 PINE ST 2018-10-06 11:06:59.020 CIVIL MATTER
18-1001167 18-11422 500 SOUTH GERMAN LN 2018-10-06 10:47:38.450 MISDEMEANOR WARRANT SERVICE
18-1001166 3 LAKEVIEW DR 2018-10-06 10:43:56.617 CITIZEN ASSIST
18-1001164 1301 COUNTRY CLUB RD 2018-10-06 10:17:16.280 PARKING VIOLATION
18-1001163 1775 OLD MORRILTON HWY 2018-10-06 10:14:23.917 PURSUIT
18-1001162 18-11421 4101 PRINCE ST 2018-10-06 10:06:00.517 STALKING
18-1001159 18-11420 955 SOUTH GERMAN LN 2018-10-06 09:45:54.270 LOST-STOLEN LICENSE PLATE
18-1001158 710 S HARKRIDER DR 2018-10-06 09:44:39.903 SUPPLEMENT REPORT CALL
18-1001157 1020 FRONT ST 2018-10-06 09:44:11.887 ATTEMPT TO CONTACT
18-1001156 18-11419 955 SOUTH GERMAN LN 2018-10-06 09:33:19.753 RECOVERED PROPERTY
18-1001155 18-11418 1908 HOGAN LN 2018-10-06 09:17:22.470 CRIMINAL MISCHIEF
18-1001153 550 SKYLINE DR 2018-10-06 08:53:26.573 CITIZEN ASSIST
18-1001152 18-11417 1908 HOGAN LN 2018-10-06 08:48:31.560 CRIMINAL MISCHIEF
18-1001151 1337 COLLEGE AV 2018-10-06 08:29:32.333 HARASSMENT
18-1001149 1267 HARTON ST 2018-10-06 08:09:00.800 CIVIL STAND BY
18-1001148 2799 SALEM RD 2018-10-06 07:52:18.977 CHECKING VEHICLE
18-1001147 18-11416 710 S HARKRIDER DR 2018-10-06 07:35:22.783 BURGLARY
18-1001146 108 LOWER RIDGE RD 2018-10-06 05:55:18.530 ALARM
18-1001145 701 1ST AV 2018-10-06 05:37:29.953 SUSPICIOUS VEHICLE
18-1001144 18-11414 1400 E DAVE WARD DR 2018-10-06 05:23:24.740 CHECKING VEHICLE
18-1001143 4095 PRINCE ST 2018-10-06 05:06:37.533 CHECKING VEHICLE
18-1001141 905 SKYLINE DR 2018-10-06 04:16:49.117 ALARM
18-1001139 1815 OLD MORRILTON HWY 2018-10-06 03:38:40.020 ALARM
18-1001138 1095 SKYLINE DR 2018-10-06 03:34:15.350 FIGHT
18-1001137 1425 KODIE ST 2018-10-06 03:33:55.333 SUPPLEMENT REPORT CALL
18-1001134 207 WILLOW ST 2018-10-06 02:33:01.137 SHOTS FIRED
18-1001132 1440 DAVE WARD DR 2018-10-06 02:20:17.980 INTOXICATED DRIVER
18-1001131 12 DEERWOOD DR 2018-10-06 02:11:32.363 BURGLARY
18-1001130 1420 ARAPAHO TRL 2018-10-06 02:06:25.993 PROWLER
18-1001129 1210 DAVE WARD DR 2018-10-06 01:34:28.510 DOMESTIC DISTURBANCE
18-1001128 701 1ST AV 2018-10-06 01:26:50.130 SUSPICIOUS ACTIVITY
18-1001127 1200 E DAVE WARD DR 2018-10-06 01:07:05.613 RECKLESS DRIVER
18-1001126 620 1ST ST 2018-10-06 00:53:18.513 CHECK ON THE WELFARE
18-1001124 18-11410 1908 HOGAN LN 2018-10-06 00:48:12.423 CRIMINAL MISCHIEF
18-1001123 1595 SOUTH GERMAN LN 2018-10-06 00:46:48.730 CHECK ON THE WELFARE
18-1001122 1401 BRUCE ST 2018-10-06 00:46:07.543 RECKLESS DRIVER
Call Number Case Number Address Call Time Incident Type

General Contacts

POLICE HEADQUARTERS
1105 Prairie Street
Conway, AR 72032

Conway Police Department


  911 (EMERGENCIES ONLY)

  501.450.6120 (non-emergency)

ANONYMOUS TIPS
 Leave a message at 501.450.6135
 Text CONWAY and your tip to 274637 (CRIMES) Click for an Example

   

City of Conway

We, the members of the Conway Police Department, are committed to protecting and serving the citizens of Conway, Arkansas. That is our highest calling, as we pledge to join hands with others in carrying out our sworn duty to uphold the law.

Chief Jody Spradlin

Latest Tweets